GFSNW_500_temp_096.txt.gz
Temp
-22 -22 -23 -23 -23 -23 -23 -24 -24 -24 -24 -24 -25 -27 -27 -27 -27 -26 -25 -24 -24 -24 -23 -23 -22 -21 -22 -22 -22 -22 -22 -22 -22 -21 -21 -20 -20 -19 -19 -18 -18 -18 -18 -17
-22 -23 -23 -23 -23 -23 -24 -24 -24 -24 -24 -25 -25 -27 -26 -27 -26 -25 -25 -25 -24 -23 -22 -22 -22 -22 -21 -22 -23 -22 -21 -21 -21 -21 -20 -19 -19 -19 -18 -18 -18 -18 -18 -18
-22 -23 -23 -23 -24 -24 -24 -24 -24 -24 -25 -25 -25 -27 -26 -26 -26 -26 -26 -26 -25 -24 -23 -22 -22 -22 -21 -22 -22 -22 -21 -22 -21 -21 -20 -19 -19 -19 -18 -18 -18 -18 -18 -18
-23 -23 -23 -23 -24 -24 -24 -24 -24 -24 -25 -26 -26 -27 -27 -26 -27 -26 -26 -26 -25 -25 -24 -22 -22 -22 -22 -21 -21 -22 -21 -21 -21 -21 -21 -20 -20 -19 -19 -19 -19 -19 -18 -18
-23 -24 -24 -23 -24 -24 -24 -24 -24 -25 -25 -26 -26 -27 -27 -27 -27 -27 -26 -26 -25 -25 -25 -23 -22 -22 -21 -22 -21 -21 -21 -22 -21 -21 -21 -21 -20 -20 -19 -19 -19 -19 -19 -18
-24 -24 -24 -24 -24 -24 -24 -25 -25 -25 -25 -26 -26 -27 -27 -27 -26 -26 -26 -26 -26 -26 -25 -24 -23 -22 -22 -21 -21 -21 -21 -21 -22 -21 -21 -21 -20 -20 -20 -19 -19 -19 -18 -18
-24 -24 -24 -24 -24 -25 -25 -25 -25 -25 -25 -26 -27 -27 -27 -27 -26 -26 -26 -26 -26 -25 -25 -25 -24 -23 -23 -22 -22 -22 -22 -22 -22 -21 -21 -21 -21 -20 -20 -20 -19 -19 -18 -18
-24 -24 -24 -24 -24 -25 -25 -25 -25 -25 -25 -26 -27 -27 -27 -27 -27 -27 -26 -26 -25 -25 -25 -25 -25 -24 -24 -23 -23 -22 -23 -22 -22 -22 -22 -21 -21 -21 -20 -20 -19 -19 -19 -19
-24 -24 -24 -24 -24 -25 -25 -25 -25 -25 -26 -26 -27 -27 -27 -27 -27 -27 -27 -26 -26 -26 -25 -25 -25 -25 -24 -24 -23 -23 -22 -22 -22 -22 -22 -21 -21 -21 -20 -20 -20 -19 -19 -19
-25 -25 -25 -25 -25 -25 -25 -25 -26 -26 -26 -27 -27 -27 -27 -27 -27 -27 -27 -27 -26 -26 -25 -25 -25 -24 -24 -24 -23 -23 -22 -22 -22 -22 -22 -22 -22 -21 -21 -20 -20 -20 -19 -19
-25 -25 -25 -25 -25 -25 -25 -26 -26 -26 -27 -27 -27 -27 -27 -27 -27 -27 -27 -27 -26 -26 -25 -25 -25 -24 -24 -23 -23 -23 -23 -23 -23 -23 -23 -23 -22 -21 -21 -21 -20 -20 -20 -19
-26 -26 -25 -25 -25 -26 -26 -26 -26 -27 -27 -27 -27 -28 -27 -27 -27 -27 -27 -27 -26 -26 -26 -25 -25 -25 -24 -24 -24 -23 -23 -23 -23 -23 -23 -23 -22 -21 -21 -21 -20 -20 -20 -19
-26 -26 -26 -26 -26 -26 -26 -26 -26 -27 -27 -27 -27 -28 -28 -27 -27 -27 -27 -26 -26 -26 -26 -26 -25 -25 -25 -25 -24 -24 -24 -24 -23 -23 -23 -23 -22 -22 -21 -21 -21 -21 -20 -21
-26 -26 -26 -26 -26 -26 -26 -26 -27 -27 -27 -27 -27 -28 -27 -27 -27 -27 -26 -26 -26 -26 -26 -25 -25 -25 -25 -25 -25 -25 -25 -24 -24 -24 -23 -23 -23 -23 -22 -22 -22 -22 -22 -22
-26 -27 -26 -26 -26 -26 -26 -27 -27 -27 -27 -27 -27 -27 -27 -27 -27 -26 -26 -26 -26 -25 -25 -25 -25 -26 -26 -25 -25 -25 -25 -25 -25 -24 -24 -24 -23 -23 -23 -23 -23 -23 -23 -23
-27 -27 -27 -27 -27 -27 -27 -27 -27 -27 -27 -27 -28 -27 -27 -27 -27 -26 -26 -26 -26 -25 -25 -25 -26 -25 -26 -26 -26 -26 -26 -26 -25 -25 -25 -24 -24 -24 -24 -23 -23 -23 -23 -24
-28 -28 -28 -28 -27 -27 -28 -28 -28 -27 -27 -27 -27 -27 -27 -27 -26 -26 -26 -26 -26 -26 -26 -26 -27 -27 -27 -26 -26 -26 -26 -26 -25 -25 -25 -25 -25 -25 -24 -24 -24 -24 -24 -23
-29 -28 -28 -28 -28 -28 -28 -28 -28 -28 -27 -27 -27 -27 -26 -27 -27 -27 -27 -26 -26 -26 -27 -28 -28 -28 -28 -27 -27 -27 -26 -26 -26 -25 -25 -25 -25 -25 -24 -24 -24 -24 -24 -23
-29 -29 -29 -28 -28 -28 -29 -28 -28 -28 -27 -27 -27 -26 -27 -27 -28 -27 -27 -27 -27 -27 -28 -28 -28 -27 -27 -27 -27 -27 -26 -26 -26 -26 -25 -25 -25 -25 -25 -24 -24 -24 -24 -24
-29 -29 -29 -29 -29 -29 -29 -28 -28 -28 -28 -27 -27 -27 -28 -28 -28 -28 -27 -28 -28 -28 -28 -28 -27 -28 -27 -27 -27 -27 -27 -27 -26 -26 -26 -26 -25 -25 -25 -25 -25 -24 -24 -24
-29 -30 -30 -29 -29 -29 -29 -28 -28 -28 -28 -27 -27 -28 -28 -28 -28 -28 -28 -28 -28 -28 -28 -28 -27 -28 -28 -27 -27 -27 -27 -27 -26 -26 -25 -25 -25 -25 -25 -25 -24 -24 -25 -24
-30 -29 -30 -29 -29 -29 -28 -28 -28 -28 -28 -27 -27 -28 -28 -28 -28 -29 -28 -28 -28 -28 -28 -27 -27 -27 -27 -27 -27 -27 -27 -26 -26 -26 -25 -25 -25 -25 -25 -25 -25 -25 -25 -25
-30 -30 -30 -29 -29 -28 -28 -28 -28 -28 -28 -27 -27 -28 -28 -28 -28 -28 -28 -28 -28 -27 -27 -27 -27 -27 -27 -27 -27 -27 -26 -26 -26 -26 -26 -25 -25 -25 -25 -26 -26 -26 -26 -26
-30 -29 -29 -30 -29 -28 -28 -29 -28 -28 -27 -27 -27 -28 -27 -28 -28 -28 -28 -27 -27 -27 -27 -27 -27 -27 -27 -27 -27 -27 -27 -26 -26 -26 -26 -26 -26 -26 -26 -26 -26 -26 -26 -27
-30 -30 -29 -29 -29 -29 -29 -29 -28 -28 -27 -27 -27 -28 -27 -27 -27 -27 -27 -27 -27 -27 -27 -27 -27 -27 -27 -27 -27 -27 -27 -26 -26 -26 -26 -26 -26 -26 -27 -27 -27 -27 -27 -27
-30 -29 -29 -29 -29 -29 -29 -29 -28 -28 -28 -28 -27 -27 -27 -27 -27 -27 -27 -27 -27 -27 -27 -27 -27 -27 -27 -27 -27 -27 -27 -27 -26 -26 -26 -27 -27 -27 -27 -27 -27 -28 -28 -28
-30 -29 -29 -29 -29 -29 -29 -29 -29 -28 -28 -28 -28 -27 -27 -27 -27 -27 -27 -27 -27 -27 -27 -27 -27 -27 -27 -27 -27 -27 -26 -27 -27 -27 -27 -27 -27 -28 -28 -28 -29 -29 -29 -29

GFSNW_500_temp_102.txt.gz
Temp
-18 -19 -20 -20 -20 -20 -20 -21 -21 -21 -21 -21 -21 -21 -22 -22 -23 -24 -23 -24 -23 -23 -23 -23 -22 -22 -22 -22 -21 -21 -22 -21 -21 -20 -20 -20 -20 -20 -19 -19 -19 -17 -17 -17
-19 -19 -20 -20 -20 -21 -21 -21 -21 -22 -21 -21 -22 -22 -22 -22 -23 -24 -24 -23 -23 -23 -22 -22 -22 -22 -21 -21 -21 -21 -20 -21 -20 -21 -20 -20 -20 -20 -20 -19 -19 -18 -18 -18
-20 -20 -20 -20 -21 -21 -21 -21 -21 -22 -22 -22 -22 -23 -22 -22 -23 -24 -24 -23 -23 -23 -23 -22 -22 -22 -21 -21 -22 -22 -21 -20 -21 -20 -20 -19 -19 -19 -19 -19 -19 -19 -19 -19
-20 -20 -21 -21 -21 -22 -21 -22 -22 -22 -22 -22 -22 -23 -23 -23 -23 -24 -24 -24 -23 -23 -23 -23 -22 -22 -21 -22 -21 -21 -21 -20 -20 -20 -20 -20 -19 -18 -19 -20 -20 -19 -19 -19
-20 -21 -21 -21 -22 -22 -22 -22 -22 -22 -23 -23 -23 -23 -23 -23 -23 -24 -24 -24 -24 -24 -23 -22 -22 -22 -21 -21 -21 -21 -21 -20 -20 -19 -20 -19 -20 -20 -20 -20 -20 -19 -19 -20
-21 -22 -22 -22 -22 -22 -22 -22 -22 -23 -23 -23 -23 -23 -23 -24 -24 -24 -24 -24 -24 -24 -24 -23 -22 -22 -22 -22 -21 -22 -21 -21 -20 -20 -21 -20 -21 -21 -21 -21 -20 -20 -20 -19
-22 -22 -22 -23 -22 -23 -23 -23 -23 -23 -24 -23 -24 -24 -24 -24 -24 -25 -25 -24 -24 -24 -24 -24 -23 -22 -22 -21 -21 -21 -21 -21 -21 -21 -21 -21 -21 -20 -21 -20 -20 -20 -20 -20
-22 -23 -23 -23 -23 -23 -23 -23 -23 -23 -24 -24 -24 -24 -24 -24 -24 -25 -25 -26 -25 -24 -24 -24 -23 -23 -23 -21 -21 -21 -21 -21 -21 -21 -21 -21 -21 -21 -20 -20 -21 -20 -20 -20
-23 -23 -23 -23 -23 -23 -23 -23 -24 -24 -24 -24 -24 -24 -24 -24 -25 -26 -26 -26 -26 -24 -24 -24 -24 -23 -24 -23 -22 -22 -22 -22 -21 -21 -22 -21 -21 -22 -22 -22 -21 -20 -20 -19
-23 -24 -24 -24 -24 -24 -24 -24 -24 -24 -24 -24 -24 -24 -25 -25 -25 -26 -26 -26 -26 -25 -24 -24 -24 -24 -24 -24 -23 -22 -22 -22 -23 -22 -22 -22 -22 -21 -21 -21 -20 -20 -20 -20
-24 -24 -24 -24 -24 -24 -24 -24 -24 -24 -25 -25 -25 -25 -25 -25 -26 -26 -27 -27 -26 -26 -25 -24 -24 -23 -24 -24 -23 -23 -23 -23 -22 -22 -22 -21 -21 -22 -21 -21 -21 -21 -21 -20
-25 -25 -24 -24 -24 -24 -24 -25 -25 -25 -25 -25 -25 -26 -26 -26 -26 -27 -27 -27 -26 -27 -25 -24 -24 -23 -24 -24 -24 -23 -23 -22 -22 -22 -22 -21 -21 -22 -22 -22 -22 -21 -21 -21
-25 -25 -25 -25 -25 -25 -25 -25 -25 -25 -25 -25 -26 -26 -26 -26 -27 -27 -27 -27 -27 -27 -26 -25 -24 -24 -24 -24 -23 -23 -23 -22 -22 -22 -22 -22 -22 -22 -22 -22 -22 -22 -21 -21
-26 -26 -26 -25 -25 -25 -25 -25 -25 -25 -26 -26 -26 -26 -26 -27 -27 -27 -27 -27 -27 -26 -26 -26 -25 -25 -24 -24 -24 -23 -23 -23 -23 -23 -23 -23 -23 -22 -22 -22 -22 -22 -22 -22
-26 -26 -26 -26 -26 -26 -26 -26 -26 -26 -26 -26 -26 -27 -27 -27 -27 -27 -27 -27 -27 -26 -26 -26 -26 -25 -25 -25 -25 -24 -24 -23 -23 -23 -23 -23 -23 -23 -23 -23 -23 -23 -23 -23
-26 -26 -26 -26 -26 -26 -26 -26 -26 -26 -26 -26 -27 -27 -27 -27 -27 -27 -27 -27 -27 -26 -26 -26 -26 -25 -25 -25 -26 -25 -25 -24 -24 -24 -24 -24 -24 -24 -24 -24 -24 -24 -23 -23
-26 -26 -26 -26 -26 -26 -26 -27 -27 -27 -26 -27 -27 -27 -27 -27 -27 -27 -27 -27 -26 -26 -26 -26 -25 -25 -26 -26 -26 -25 -25 -25 -25 -25 -24 -25 -24 -24 -24 -24 -24 -24 -24 -24
-27 -27 -26 -26 -26 -27 -27 -27 -27 -27 -27 -27 -27 -27 -27 -27 -27 -27 -26 -26 -26 -26 -26 -26 -26 -26 -27 -27 -27 -26 -26 -26 -26 -25 -25 -26 -25 -25 -25 -25 -25 -25 -24 -24
-27 -27 -27 -27 -27 -28 -28 -28 -27 -27 -27 -27 -27 -27 -27 -27 -27 -27 -27 -27 -26 -26 -26 -26 -26 -28 -27 -27 -27 -27 -27 -26 -26 -26 -26 -26 -26 -26 -25 -25 -25 -25 -25 -25
-27 -27 -27 -27 -29 -28 -28 -28 -27 -27 -27 -28 -28 -27 -27 -27 -28 -28 -28 -27 -27 -28 -27 -27 -27 -28 -28 -27 -27 -27 -27 -27 -27 -26 -26 -26 -26 -26 -25 -25 -25 -25 -25 -25
-27 -27 -27 -29 -29 -29 -28 -28 -27 -28 -28 -28 -28 -27 -27 -28 -28 -28 -28 -28 -28 -28 -27 -28 -28 -28 -28 -28 -27 -27 -27 -27 -27 -27 -26 -26 -26 -26 -26 -25 -25 -25 -25 -25
-28 -28 -29 -29 -29 -29 -29 -28 -28 -28 -28 -28 -28 -28 -28 -28 -28 -28 -28 -28 -28 -28 -28 -27 -28 -27 -27 -27 -27 -27 -27 -27 -27 -27 -26 -26 -26 -26 -26 -26 -26 -26 -25 -25
-30 -30 -30 -29 -29 -29 -28 -28 -28 -28 -28 -28 -28 -28 -28 -28 -28 -28 -28 -28 -28 -28 -27 -27 -27 -27 -27 -27 -27 -27 -27 -27 -26 -26 -26 -26 -26 -26 -25 -25 -25 -25 -25 -25
-30 -30 -30 -30 -29 -29 -28 -29 -29 -28 -28 -27 -27 -28 -28 -28 -28 -28 -28 -28 -28 -28 -27 -27 -27 -27 -27 -27 -27 -27 -27 -27 -26 -26 -26 -26 -26 -26 -26 -25 -25 -25 -25 -25
-30 -30 -30 -30 -29 -29 -29 -29 -28 -28 -28 -28 -28 -28 -28 -28 -28 -28 -28 -28 -27 -27 -27 -27 -27 -27 -27 -27 -26 -26 -26 -26 -26 -26 -26 -26 -25 -25 -25 -25 -25 -25 -26 -26
-30 -30 -30 -29 -29 -29 -29 -29 -28 -28 -28 -28 -28 -28 -28 -28 -28 -28 -28 -27 -27 -27 -27 -27 -27 -27 -27 -27 -26 -26 -26 -26 -26 -26 -26 -26 -25 -25 -25 -26 -26 -26 -27 -27
-30 -30 -29 -29 -29 -29 -29 -29 -28 -28 -28 -28 -28 -28 -28 -28 -27 -27 -27 -27 -27 -27 -27 -27 -27 -27 -26 -26 -26 -26 -26 -26 -26 -26 -25 -25 -26 -26 -26 -27 -27 -27 -28 -28

GFSNW_500_temp_105.txt.gz
Temp
-18 -18 -17 -18 -19 -19 -19 -19 -20 -20 -20 -20 -20 -21 -21 -20 -21 -21 -22 -23 -23 -23 -22 -22 -22 -22 -22 -21 -22 -21 -21 -21 -21 -20 -21 -20 -20 -20 -20 -19 -18 -18 -17 -17
-18 -17 -18 -19 -20 -20 -19 -20 -20 -20 -20 -20 -21 -21 -20 -21 -21 -22 -22 -23 -24 -23 -22 -21 -21 -22 -22 -22 -21 -21 -21 -21 -21 -20 -20 -19 -20 -20 -19 -19 -19 -18 -17 -17
-18 -18 -19 -20 -20 -20 -20 -20 -20 -20 -21 -21 -21 -21 -21 -21 -22 -22 -22 -23 -24 -23 -23 -22 -22 -22 -21 -22 -22 -21 -21 -21 -21 -20 -20 -20 -19 -19 -19 -19 -19 -18 -19 -18
-18 -19 -20 -20 -20 -20 -20 -20 -20 -21 -21 -21 -21 -21 -21 -22 -22 -22 -22 -23 -24 -23 -23 -22 -21 -21 -21 -22 -21 -21 -21 -21 -20 -20 -20 -20 -19 -19 -19 -19 -19 -19 -19 -19
-19 -20 -20 -21 -21 -20 -21 -21 -21 -21 -21 -21 -21 -22 -22 -22 -22 -22 -22 -23 -24 -24 -23 -22 -22 -21 -22 -22 -21 -21 -21 -21 -20 -20 -20 -19 -19 -20 -19 -19 -19 -19 -19 -19
-20 -20 -21 -21 -21 -21 -21 -21 -21 -22 -22 -22 -22 -22 -22 -22 -23 -23 -22 -23 -23 -24 -23 -23 -23 -22 -22 -21 -21 -21 -21 -21 -20 -21 -20 -20 -20 -20 -20 -20 -19 -19 -20 -19
-20 -21 -21 -21 -21 -22 -22 -22 -22 -22 -22 -22 -22 -23 -22 -23 -23 -23 -23 -23 -23 -23 -24 -24 -23 -23 -22 -21 -21 -21 -21 -21 -21 -21 -21 -21 -21 -21 -21 -21 -20 -20 -20 -20
-21 -21 -21 -22 -22 -22 -22 -22 -22 -23 -22 -22 -23 -23 -23 -23 -23 -23 -24 -23 -24 -24 -24 -24 -24 -23 -22 -21 -21 -22 -21 -21 -21 -21 -21 -21 -21 -21 -21 -20 -20 -20 -20 -20
-22 -22 -22 -22 -22 -22 -23 -23 -23 -23 -23 -23 -23 -23 -23 -23 -24 -24 -23 -25 -24 -26 -25 -24 -24 -23 -23 -23 -22 -22 -22 -22 -21 -21 -21 -21 -21 -21 -20 -21 -20 -21 -21 -21
-22 -22 -23 -23 -22 -23 -23 -23 -23 -23 -23 -24 -24 -24 -24 -24 -24 -24 -24 -25 -25 -26 -25 -24 -24 -24 -23 -23 -23 -22 -22 -22 -22 -22 -22 -22 -22 -22 -21 -20 -21 -21 -20 -20
-23 -23 -23 -23 -23 -24 -23 -23 -24 -24 -24 -24 -24 -24 -24 -24 -24 -25 -25 -25 -26 -26 -26 -25 -24 -24 -24 -24 -23 -23 -23 -23 -22 -22 -22 -21 -21 -21 -21 -21 -21 -21 -21 -20
-24 -23 -23 -24 -24 -24 -24 -24 -24 -24 -24 -24 -25 -25 -25 -24 -25 -26 -26 -26 -26 -26 -26 -26 -25 -24 -24 -24 -24 -24 -23 -22 -22 -22 -22 -21 -21 -21 -21 -21 -21 -21 -21 -21
-24 -25 -25 -25 -25 -24 -24 -24 -25 -25 -24 -25 -25 -25 -25 -25 -26 -26 -26 -27 -27 -27 -26 -26 -26 -25 -24 -24 -24 -23 -23 -23 -22 -22 -22 -21 -21 -21 -21 -21 -21 -22 -22 -21
-25 -26 -26 -25 -25 -25 -25 -25 -25 -25 -25 -25 -25 -25 -25 -26 -26 -26 -27 -27 -27 -27 -27 -27 -26 -26 -25 -24 -24 -23 -23 -23 -23 -22 -22 -22 -22 -22 -22 -22 -22 -22 -22 -22
-26 -26 -26 -25 -25 -25 -25 -25 -25 -25 -26 -26 -25 -25 -26 -26 -26 -27 -27 -27 -27 -27 -27 -27 -26 -26 -26 -25 -24 -24 -23 -23 -23 -23 -23 -23 -23 -23 -23 -23 -23 -23 -23 -23
-26 -26 -26 -26 -26 -26 -26 -25 -25 -26 -26 -26 -25 -26 -26 -26 -27 -27 -27 -27 -27 -27 -27 -26 -26 -26 -26 -26 -25 -24 -24 -24 -24 -24 -24 -24 -24 -24 -24 -24 -24 -24 -24 -24
-26 -26 -26 -26 -26 -26 -26 -26 -26 -26 -26 -26 -26 -26 -26 -26 -27 -27 -27 -27 -27 -27 -27 -26 -26 -26 -26 -26 -26 -25 -25 -25 -25 -25 -25 -25 -25 -24 -24 -24 -24 -25 -25 -24
-27 -26 -26 -26 -26 -26 -26 -26 -26 -26 -26 -26 -26 -27 -26 -26 -26 -27 -27 -27 -27 -26 -26 -26 -26 -26 -27 -27 -27 -26 -26 -26 -26 -26 -26 -26 -26 -25 -26 -25 -25 -25 -25 -25
-26 -26 -26 -26 -27 -27 -26 -26 -27 -26 -27 -27 -27 -27 -27 -26 -26 -26 -27 -27 -27 -27 -26 -26 -26 -26 -27 -27 -27 -27 -27 -26 -26 -26 -26 -26 -26 -26 -26 -26 -26 -26 -25 -25
-27 -27 -27 -27 -27 -27 -27 -27 -27 -27 -27 -27 -27 -27 -27 -27 -27 -27 -27 -27 -27 -27 -27 -27 -28 -28 -28 -28 -28 -27 -27 -27 -27 -27 -27 -27 -26 -26 -26 -26 -26 -26 -26 -26
-27 -27 -27 -28 -27 -27 -27 -27 -27 -27 -28 -28 -28 -27 -27 -27 -28 -28 -28 -28 -28 -28 -28 -28 -28 -28 -28 -28 -28 -27 -27 -27 -27 -27 -27 -27 -27 -26 -26 -26 -26 -26 -26 -25
-28 -28 -28 -28 -28 -27 -27 -27 -27 -27 -28 -28 -28 -28 -27 -28 -28 -28 -28 -28 -28 -28 -28 -28 -28 -28 -28 -27 -27 -27 -27 -27 -27 -27 -27 -26 -26 -26 -26 -26 -26 -25 -25 -25
-28 -28 -29 -28 -28 -28 -27 -27 -28 -28 -28 -28 -28 -28 -28 -28 -28 -28 -28 -28 -28 -28 -28 -28 -28 -27 -27 -27 -27 -27 -27 -27 -27 -27 -27 -27 -26 -26 -26 -25 -25 -25 -25 -25
-29 -29 -29 -29 -28 -28 -28 -28 -28 -28 -28 -28 -28 -28 -28 -28 -28 -28 -28 -28 -28 -28 -28 -27 -27 -27 -27 -27 -27 -27 -27 -27 -26 -26 -26 -26 -26 -25 -25 -25 -25 -25 -25 -25
-29 -29 -29 -29 -29 -29 -29 -29 -29 -29 -28 -28 -28 -28 -28 -28 -28 -28 -28 -28 -28 -28 -27 -27 -27 -27 -27 -27 -27 -27 -26 -26 -26 -26 -26 -26 -26 -26 -25 -25 -25 -25 -26 -26
-30 -29 -29 -29 -29 -29 -29 -29 -29 -28 -28 -28 -28 -28 -28 -28 -28 -28 -28 -28 -27 -27 -27 -27 -27 -27 -27 -27 -26 -26 -26 -26 -26 -26 -26 -26 -26 -26 -25 -25 -26 -26 -26 -27
-30 -30 -30 -29 -30 -30 -29 -29 -29 -29 -28 -28 -28 -28 -28 -28 -28 -28 -28 -28 -27 -27 -27 -27 -27 -27 -27 -26 -26 -26 -26 -26 -26 -26 -26 -25 -25 -26 -26 -26 -26 -27 -27 -27

GFSNW_500_temp_108.txt.gz
Temp
-17 -17 -17 -17 -17 -17 -17 -18 -19 -19 -19 -19 -19 -19 -19 -19 -19 -19 -19 -20 -22 -22 -21 -21 -21 -21 -21 -22 -21 -21 -22 -21 -21 -21 -21 -21 -21 -21 -21 -21 -20 -20 -20 -19
-18 -18 -17 -17 -18 -17 -18 -19 -20 -19 -19 -19 -19 -19 -20 -20 -20 -20 -20 -21 -21 -23 -21 -21 -21 -21 -21 -21 -21 -21 -20 -21 -21 -20 -20 -20 -20 -20 -20 -20 -19 -19 -19 -19
-18 -18 -18 -18 -18 -18 -18 -20 -20 -20 -19 -19 -19 -19 -20 -20 -20 -20 -20 -21 -22 -23 -23 -21 -21 -21 -21 -21 -22 -21 -20 -20 -20 -20 -20 -20 -20 -20 -19 -19 -19 -19 -19 -19
-18 -18 -18 -18 -18 -18 -19 -20 -20 -20 -20 -19 -20 -20 -20 -20 -21 -21 -21 -22 -22 -22 -24 -23 -22 -21 -21 -20 -21 -21 -21 -20 -20 -20 -20 -20 -20 -19 -19 -19 -19 -19 -19 -19
-19 -19 -19 -18 -18 -19 -20 -20 -20 -20 -20 -20 -20 -21 -21 -21 -21 -21 -22 -22 -22 -22 -24 -24 -22 -22 -21 -21 -21 -21 -21 -20 -20 -20 -20 -19 -20 -19 -20 -19 -19 -19 -19 -19
-19 -20 -19 -18 -19 -20 -21 -21 -20 -20 -20 -20 -21 -21 -21 -21 -22 -22 -22 -22 -23 -23 -23 -24 -23 -22 -21 -22 -21 -21 -21 -21 -20 -20 -20 -20 -19 -20 -20 -20 -20 -20 -20 -19
-20 -19 -19 -19 -20 -21 -21 -21 -21 -20 -20 -21 -21 -22 -22 -22 -22 -22 -22 -23 -23 -23 -24 -24 -24 -23 -22 -22 -22 -21 -21 -21 -21 -21 -20 -20 -20 -21 -21 -20 -21 -20 -20 -20
-20 -19 -19 -20 -21 -21 -21 -21 -21 -21 -21 -21 -22 -22 -22 -22 -22 -22 -22 -23 -23 -23 -24 -24 -24 -23 -23 -22 -22 -22 -21 -21 -21 -21 -21 -21 -21 -21 -21 -20 -20 -20 -20 -20
-20 -20 -20 -21 -21 -22 -22 -21 -21 -21 -21 -22 -22 -23 -22 -23 -23 -23 -23 -23 -23 -23 -24 -24 -24 -24 -23 -23 -22 -22 -22 -22 -21 -21 -21 -21 -21 -21 -21 -21 -21 -21 -21 -20
-20 -21 -21 -21 -22 -22 -22 -22 -22 -22 -22 -23 -23 -22 -23 -23 -23 -23 -24 -24 -24 -24 -25 -24 -25 -24 -24 -24 -23 -22 -22 -22 -22 -22 -21 -21 -21 -21 -21 -21 -21 -21 -21 -21
-21 -21 -22 -22 -23 -23 -23 -23 -23 -22 -23 -23 -23 -23 -23 -23 -24 -24 -24 -24 -24 -25 -25 -25 -25 -25 -24 -24 -23 -23 -22 -22 -22 -22 -22 -22 -22 -21 -21 -21 -21 -21 -21 -20
-22 -22 -22 -22 -23 -23 -23 -23 -23 -23 -23 -24 -24 -23 -24 -24 -24 -24 -24 -25 -25 -26 -26 -26 -26 -25 -24 -24 -24 -24 -23 -23 -23 -22 -22 -22 -22 -21 -21 -21 -21 -21 -21 -21
-23 -23 -22 -23 -24 -24 -24 -24 -24 -24 -24 -24 -24 -24 -24 -24 -24 -25 -25 -26 -26 -26 -26 -26 -26 -26 -25 -24 -24 -24 -24 -24 -23 -22 -22 -22 -22 -21 -21 -21 -21 -21 -21 -21
-23 -23 -23 -24 -24 -25 -24 -24 -24 -24 -24 -24 -24 -25 -25 -25 -25 -25 -26 -26 -27 -27 -27 -27 -26 -26 -26 -25 -24 -24 -24 -23 -23 -23 -22 -22 -22 -22 -21 -22 -22 -22 -22 -22
-23 -24 -24 -25 -25 -25 -24 -24 -24 -24 -24 -25 -25 -25 -25 -25 -25 -26 -26 -27 -27 -27 -27 -27 -27 -27 -26 -26 -25 -24 -24 -23 -23 -23 -22 -22 -22 -22 -22 -22 -23 -23 -22 -23
-24 -25 -25 -26 -25 -25 -25 -25 -25 -25 -25 -25 -25 -25 -25 -25 -26 -26 -26 -27 -27 -27 -27 -27 -27 -27 -26 -26 -26 -25 -24 -24 -24 -23 -23 -23 -23 -23 -23 -23 -23 -23 -23 -23
-26 -26 -26 -26 -26 -25 -25 -25 -25 -25 -25 -26 -26 -25 -25 -25 -26 -26 -26 -27 -27 -27 -27 -27 -26 -26 -26 -26 -26 -26 -25 -25 -25 -24 -24 -24 -24 -24 -24 -24 -24 -24 -25 -25
-26 -26 -26 -26 -26 -26 -25 -26 -26 -26 -26 -26 -26 -26 -26 -26 -26 -26 -26 -27 -27 -26 -26 -26 -26 -26 -26 -26 -26 -26 -26 -26 -25 -25 -25 -25 -25 -25 -25 -25 -25 -25 -25 -25
-26 -26 -26 -26 -26 -26 -26 -26 -26 -26 -26 -26 -26 -26 -26 -26 -26 -26 -26 -26 -27 -26 -26 -26 -26 -26 -26 -26 -26 -27 -27 -26 -26 -26 -26 -26 -26 -26 -25 -25 -25 -26 -26 -26
-27 -27 -27 -26 -26 -26 -26 -26 -26 -26 -26 -26 -26 -27 -27 -27 -27 -26 -27 -27 -27 -27 -27 -27 -27 -27 -27 -27 -28 -28 -27 -27 -27 -27 -27 -27 -26 -26 -26 -26 -26 -26 -26 -25
-27 -27 -27 -27 -26 -26 -26 -26 -26 -27 -27 -27 -27 -27 -27 -27 -27 -27 -27 -28 -28 -28 -28 -28 -27 -28 -28 -28 -28 -28 -27 -27 -27 -27 -27 -27 -27 -27 -27 -26 -26 -26 -26 -26
-27 -27 -27 -27 -27 -27 -26 -26 -27 -27 -27 -27 -27 -28 -28 -27 -28 -28 -28 -28 -28 -28 -28 -28 -28 -28 -28 -28 -27 -27 -27 -27 -27 -27 -27 -27 -27 -27 -27 -27 -26 -26 -26 -26
-27 -27 -27 -27 -27 -27 -26 -27 -28 -28 -28 -28 -28 -28 -28 -28 -28 -28 -28 -28 -28 -28 -28 -28 -28 -28 -27 -27 -27 -27 -27 -27 -27 -27 -27 -27 -27 -27 -26 -26 -26 -26 -25 -25
-28 -28 -27 -27 -27 -27 -27 -28 -28 -28 -28 -28 -28 -28 -28 -28 -28 -28 -28 -28 -28 -28 -28 -28 -28 -27 -27 -27 -27 -27 -27 -27 -27 -27 -27 -26 -26 -26 -26 -26 -25 -25 -25 -25
-28 -28 -28 -28 -27 -28 -28 -28 -28 -28 -28 -28 -28 -28 -28 -28 -28 -28 -28 -28 -28 -28 -28 -27 -27 -27 -27 -27 -27 -27 -27 -27 -26 -26 -26 -26 -26 -26 -25 -25 -25 -25 -25 -25
-29 -29 -28 -28 -28 -28 -28 -29 -29 -29 -29 -29 -28 -28 -28 -28 -28 -28 -28 -28 -28 -27 -27 -27 -27 -27 -27 -27 -27 -27 -26 -26 -26 -26 -26 -26 -26 -25 -25 -25 -26 -26 -26 -26
-29 -29 -29 -29 -29 -29 -29 -29 -29 -29 -28 -28 -28 -28 -28 -28 -28 -28 -28 -28 -28 -27 -27 -27 -27 -27 -27 -27 -26 -26 -26 -26 -26 -26 -26 -26 -26 -26 -26 -26 -26 -26 -26 -27

GFSNW_500_temp_111.txt.gz
Temp
-20 -19 -19 -18 -18 -18 -17 -17 -17 -17 -18 -18 -19 -18 -18 -18 -18 -18 -18 -19 -19 -19 -19 -21 -21 -21 -21 -21 -21 -21 -20 -20 -21 -21 -21 -21 -21 -21 -21 -21 -21 -20 -20 -20
-19 -19 -19 -18 -18 -18 -18 -18 -18 -18 -18 -19 -19 -18 -18 -18 -18 -18 -19 -19 -19 -19 -20 -21 -21 -21 -21 -21 -21 -20 -20 -20 -20 -20 -20 -20 -20 -20 -20 -20 -20 -20 -20 -20
-19 -19 -18 -18 -18 -18 -18 -18 -18 -18 -19 -20 -19 -19 -19 -19 -19 -19 -19 -19 -20 -20 -20 -21 -22 -21 -21 -21 -21 -20 -20 -20 -20 -20 -20 -20 -20 -19 -20 -20 -20 -20 -20 -20
-19 -19 -19 -19 -18 -18 -18 -18 -18 -19 -20 -20 -19 -19 -19 -19 -19 -20 -20 -20 -20 -21 -22 -22 -23 -22 -21 -21 -21 -21 -20 -21 -20 -20 -20 -20 -20 -19 -19 -20 -19 -19 -20 -20
-19 -19 -19 -19 -18 -18 -18 -19 -19 -20 -20 -19 -19 -20 -19 -19 -19 -20 -20 -21 -21 -21 -22 -23 -23 -23 -22 -22 -21 -21 -21 -21 -21 -20 -20 -20 -20 -19 -19 -20 -20 -20 -20 -20
-19 -19 -19 -19 -19 -19 -19 -20 -20 -21 -20 -20 -20 -20 -20 -20 -20 -20 -21 -21 -21 -21 -22 -23 -23 -24 -22 -22 -22 -21 -21 -21 -21 -21 -20 -20 -20 -20 -20 -20 -20 -20 -20 -20
-20 -20 -19 -19 -19 -20 -20 -20 -21 -21 -20 -20 -20 -20 -20 -20 -20 -21 -21 -21 -22 -22 -23 -23 -23 -24 -23 -22 -21 -21 -21 -21 -21 -20 -20 -20 -20 -21 -21 -21 -20 -20 -20 -20
-20 -20 -20 -20 -21 -20 -20 -21 -21 -21 -21 -21 -21 -21 -20 -20 -21 -21 -21 -21 -22 -23 -23 -23 -23 -24 -24 -22 -21 -22 -21 -21 -21 -21 -21 -20 -21 -21 -20 -20 -20 -20 -20 -21
-21 -20 -21 -21 -21 -20 -21 -22 -22 -21 -21 -21 -21 -21 -21 -21 -21 -21 -22 -22 -23 -23 -23 -23 -24 -24 -24 -24 -22 -22 -22 -22 -21 -21 -21 -21 -21 -21 -21 -21 -21 -21 -21 -21
-21 -22 -22 -22 -21 -21 -22 -22 -22 -22 -22 -22 -21 -21 -22 -22 -22 -22 -22 -22 -23 -23 -23 -24 -24 -24 -24 -24 -23 -22 -22 -22 -22 -21 -21 -21 -21 -21 -21 -21 -21 -21 -21 -21
-22 -23 -22 -21 -22 -22 -23 -23 -22 -22 -22 -22 -22 -22 -22 -22 -22 -22 -23 -23 -23 -24 -24 -24 -24 -25 -25 -25 -24 -23 -23 -22 -22 -22 -21 -22 -22 -22 -21 -21 -21 -21 -21 -21
-23 -23 -22 -22 -22 -23 -23 -23 -22 -22 -22 -22 -22 -22 -22 -23 -23 -23 -23 -24 -24 -24 -25 -25 -25 -26 -25 -25 -25 -24 -23 -23 -22 -22 -22 -22 -22 -22 -22 -21 -21 -21 -21 -21
-23 -22 -21 -22 -22 -23 -23 -23 -23 -23 -23 -23 -23 -23 -23 -23 -23 -24 -24 -24 -25 -25 -26 -26 -26 -26 -26 -25 -25 -24 -24 -23 -23 -23 -23 -23 -22 -22 -22 -22 -21 -21 -21 -21
-23 -22 -23 -23 -22 -23 -23 -23 -23 -23 -23 -23 -23 -23 -24 -24 -24 -24 -24 -25 -26 -26 -27 -27 -27 -27 -26 -26 -25 -25 -25 -24 -24 -24 -23 -23 -23 -22 -22 -22 -22 -21 -21 -21
-24 -23 -23 -23 -23 -23 -23 -24 -24 -24 -24 -23 -24 -24 -24 -24 -24 -24 -25 -26 -26 -26 -27 -27 -27 -27 -27 -26 -26 -26 -25 -25 -24 -24 -23 -23 -23 -23 -23 -22 -22 -22 -22 -22
-24 -24 -24 -23 -23 -24 -25 -25 -24 -24 -24 -24 -24 -24 -25 -25 -25 -25 -25 -26 -26 -27 -27 -27 -27 -27 -27 -27 -26 -26 -26 -26 -25 -24 -24 -23 -23 -23 -22 -22 -22 -22 -22 -22
-25 -24 -24 -24 -24 -25 -25 -25 -25 -24 -25 -25 -25 -25 -25 -25 -25 -25 -25 -26 -26 -27 -27 -27 -27 -27 -27 -27 -26 -26 -26 -26 -25 -25 -24 -24 -24 -23 -23 -23 -23 -23 -23 -23
-25 -25 -25 -25 -26 -26 -25 -25 -25 -25 -25 -25 -25 -25 -25 -25 -25 -25 -25 -26 -26 -26 -26 -26 -27 -26 -27 -27 -26 -26 -26 -26 -26 -25 -25 -24 -24 -24 -24 -24 -24 -24 -24 -24
-26 -26 -26 -26 -26 -26 -26 -25 -25 -25 -25 -25 -26 -26 -26 -26 -26 -25 -26 -26 -26 -26 -26 -26 -26 -26 -26 -26 -27 -26 -26 -26 -26 -25 -25 -25 -25 -25 -25 -25 -25 -25 -25 -25
-26 -27 -26 -26 -26 -26 -26 -26 -26 -26 -26 -26 -26 -26 -26 -26 -26 -26 -26 -26 -26 -27 -27 -26 -26 -26 -27 -27 -27 -27 -27 -27 -26 -26 -26 -25 -25 -26 -26 -26 -26 -26 -26 -26
-26 -26 -26 -26 -26 -26 -26 -26 -26 -26 -26 -26 -26 -26 -26 -27 -27 -27 -27 -27 -27 -27 -27 -27 -27 -27 -27 -28 -28 -27 -27 -27 -27 -27 -27 -27 -27 -26 -26 -26 -26 -26 -26 -26
-27 -27 -26 -26 -26 -26 -26 -26 -26 -26 -26 -26 -26 -27 -27 -27 -27 -27 -28 -28 -28 -28 -28 -28 -28 -28 -28 -28 -28 -27 -27 -27 -27 -27 -27 -27 -27 -27 -27 -26 -26 -26 -26 -26
-27 -26 -26 -26 -26 -26 -26 -26 -27 -27 -27 -26 -27 -27 -27 -28 -28 -28 -28 -28 -28 -28 -28 -28 -28 -28 -28 -28 -27 -27 -27 -27 -27 -27 -27 -27 -27 -26 -26 -26 -26 -25 -25 -25
-27 -27 -27 -27 -26 -27 -27 -27 -27 -27 -26 -26 -27 -27 -28 -28 -28 -28 -28 -28 -28 -28 -28 -28 -28 -28 -27 -27 -27 -27 -27 -27 -27 -27 -27 -26 -26 -26 -26 -25 -26 -25 -25 -25
-27 -27 -27 -27 -27 -27 -27 -27 -27 -27 -27 -27 -27 -28 -28 -28 -28 -28 -28 -28 -28 -28 -27 -27 -28 -27 -27 -27 -27 -27 -27 -27 -27 -26 -26 -26 -26 -26 -26 -26 -26 -26 -26 -26
-28 -28 -28 -28 -28 -28 -28 -27 -27 -27 -27 -28 -28 -28 -28 -28 -28 -28 -28 -28 -28 -27 -27 -27 -28 -27 -27 -27 -27 -27 -27 -26 -26 -26 -26 -26 -26 -26 -26 -26 -26 -26 -26 -26
-28 -28 -28 -28 -28 -28 -28 -28 -27 -28 -28 -28 -28 -28 -28 -28 -28 -28 -28 -28 -28 -27 -28 -28 -28 -28 -27 -27 -27 -27 -27 -26 -26 -26 -26 -26 -26 -26 -26 -27 -27 -27 -27 -27

GFSNW_500_temp_114.txt.gz
Temp
-20 -21 -20 -20 -18 -20 -20 -19 -18 -17 -17 -17 -16 -17 -18 -19 -18 -18 -18 -18 -18 -18 -18 -19 -19 -19 -21 -21 -21 -21 -21 -20 -20 -20 -20 -20 -20 -20 -21 -20 -21 -20 -21 -21
-21 -20 -20 -20 -20 -20 -19 -19 -18 -18 -17 -17 -17 -18 -18 -19 -18 -18 -18 -18 -19 -18 -18 -19 -20 -20 -21 -21 -21 -21 -21 -20 -19 -19 -20 -20 -20 -20 -20 -20 -20 -20 -21 -21
-20 -20 -20 -19 -19 -20 -20 -20 -19 -18 -18 -17 -18 -18 -19 -19 -19 -19 -19 -19 -19 -18 -18 -19 -20 -21 -21 -22 -21 -21 -21 -21 -20 -20 -19 -19 -20 -20 -20 -20 -20 -20 -20 -21
-20 -20 -20 -19 -19 -19 -19 -19 -18 -18 -17 -18 -19 -19 -20 -19 -19 -19 -19 -19 -19 -19 -19 -20 -20 -21 -22 -22 -21 -21 -21 -21 -21 -20 -19 -19 -20 -20 -20 -20 -20 -20 -20 -20
-20 -20 -20 -20 -20 -19 -19 -19 -18 -18 -18 -19 -19 -19 -21 -20 -19 -19 -19 -19 -19 -19 -20 -20 -20 -21 -22 -22 -22 -22 -22 -22 -22 -20 -19 -19 -20 -20 -20 -20 -20 -20 -20 -20
-19 -19 -19 -20 -19 -19 -19 -19 -19 -19 -19 -20 -19 -20 -21 -20 -20 -20 -19 -19 -19 -20 -20 -21 -21 -21 -22 -22 -22 -22 -22 -22 -22 -22 -21 -21 -20 -20 -20 -20 -20 -21 -20 -20
-19 -19 -19 -19 -19 -19 -19 -19 -19 -19 -20 -20 -21 -21 -20 -20 -20 -20 -20 -20 -20 -20 -21 -21 -21 -22 -22 -22 -22 -22 -22 -22 -22 -21 -21 -21 -21 -21 -20 -21 -20 -20 -20 -20
-20 -19 -19 -19 -20 -20 -20 -19 -20 -20 -21 -21 -22 -21 -20 -20 -20 -20 -20 -20 -20 -21 -21 -21 -22 -22 -23 -23 -22 -22 -22 -22 -21 -21 -21 -21 -20 -21 -21 -21 -21 -21 -20 -20
-19 -19 -19 -20 -20 -20 -20 -20 -21 -21 -21 -22 -22 -21 -21 -21 -21 -21 -20 -21 -21 -21 -22 -22 -23 -23 -23 -23 -23 -23 -22 -22 -22 -21 -21 -22 -21 -20 -20 -21 -21 -21 -21 -20
-20 -20 -20 -20 -20 -20 -21 -21 -21 -21 -22 -22 -22 -21 -21 -21 -21 -21 -21 -21 -21 -22 -22 -23 -23 -23 -23 -23 -24 -23 -23 -22 -22 -22 -21 -21 -21 -21 -21 -21 -21 -21 -21 -20
-20 -20 -20 -21 -21 -22 -22 -22 -22 -22 -22 -22 -22 -22 -21 -21 -21 -21 -21 -21 -22 -22 -23 -23 -24 -24 -24 -24 -24 -24 -24 -23 -22 -22 -22 -22 -22 -22 -21 -21 -21 -21 -21 -21
-21 -21 -22 -22 -22 -22 -22 -22 -22 -23 -23 -22 -22 -22 -22 -22 -22 -22 -22 -22 -22 -23 -23 -24 -24 -25 -25 -26 -26 -25 -24 -24 -23 -23 -22 -22 -22 -22 -22 -21 -21 -21 -21 -21
-22 -23 -23 -24 -23 -22 -22 -22 -23 -23 -23 -22 -22 -22 -22 -22 -22 -22 -22 -23 -23 -24 -24 -25 -26 -26 -26 -26 -26 -25 -25 -24 -24 -23 -23 -23 -23 -23 -22 -22 -22 -22 -21 -21
-23 -24 -24 -24 -23 -23 -22 -22 -23 -23 -23 -23 -23 -23 -23 -23 -22 -23 -23 -24 -24 -24 -25 -26 -26 -27 -27 -27 -26 -26 -25 -25 -25 -24 -24 -24 -24 -23 -22 -22 -22 -22 -22 -22
-25 -25 -24 -24 -23 -22 -22 -24 -24 -24 -23 -23 -23 -23 -23 -23 -23 -23 -24 -24 -25 -25 -26 -26 -27 -27 -27 -27 -27 -26 -26 -25 -25 -25 -24 -24 -24 -24 -23 -23 -23 -22 -22 -22
-25 -24 -24 -24 -23 -22 -23 -23 -24 -24 -24 -23 -23 -23 -23 -23 -24 -24 -24 -25 -25 -25 -26 -26 -27 -27 -27 -27 -27 -27 -26 -26 -26 -26 -25 -25 -24 -24 -23 -23 -23 -23 -22 -22
-25 -25 -24 -24 -24 -23 -23 -24 -24 -24 -24 -24 -24 -24 -24 -24 -24 -24 -25 -25 -25 -25 -26 -26 -26 -27 -27 -27 -27 -27 -26 -26 -26 -26 -26 -26 -25 -24 -24 -23 -23 -23 -23 -23
-25 -25 -24 -24 -24 -24 -24 -24 -24 -24 -24 -24 -24 -24 -24 -24 -25 -25 -25 -25 -25 -25 -26 -26 -26 -26 -26 -27 -27 -27 -27 -26 -26 -26 -26 -26 -25 -25 -24 -24 -23 -23 -23 -23
-25 -24 -24 -24 -24 -25 -25 -25 -25 -25 -24 -24 -25 -25 -25 -25 -25 -25 -25 -25 -26 -25 -26 -26 -26 -26 -26 -26 -27 -27 -27 -26 -26 -26 -25 -25 -25 -25 -24 -24 -24 -24 -24 -24
-25 -25 -25 -25 -25 -26 -26 -25 -25 -25 -25 -25 -25 -25 -25 -25 -26 -26 -26 -26 -26 -25 -26 -26 -26 -26 -26 -26 -27 -27 -27 -27 -26 -26 -26 -26 -25 -25 -25 -25 -25 -25 -25 -25
-26 -26 -26 -26 -26 -26 -26 -26 -25 -25 -25 -25 -25 -25 -26 -26 -26 -26 -26 -26 -26 -26 -26 -26 -27 -27 -27 -27 -27 -27 -27 -27 -27 -27 -27 -27 -26 -26 -26 -26 -26 -26 -26 -26
-26 -27 -27 -27 -27 -26 -26 -25 -25 -25 -25 -25 -26 -26 -26 -26 -26 -27 -27 -27 -27 -27 -27 -27 -27 -28 -28 -28 -28 -28 -28 -28 -27 -27 -27 -27 -27 -26 -26 -26 -26 -26 -26 -25
-27 -27 -27 -27 -27 -26 -26 -26 -26 -25 -26 -26 -26 -26 -26 -27 -27 -27 -27 -27 -28 -27 -28 -28 -28 -28 -28 -28 -28 -28 -28 -27 -27 -27 -27 -27 -26 -26 -26 -26 -26 -25 -25 -25
-27 -27 -27 -26 -26 -26 -26 -26 -25 -26 -26 -26 -26 -26 -27 -27 -27 -27 -28 -28 -28 -28 -28 -28 -28 -28 -28 -28 -28 -28 -28 -27 -27 -27 -27 -26 -26 -26 -26 -26 -26 -26 -26 -26
-27 -27 -27 -26 -26 -26 -26 -26 -26 -26 -26 -26 -26 -27 -27 -27 -27 -27 -28 -28 -28 -28 -28 -28 -28 -28 -28 -28 -28 -27 -27 -27 -27 -27 -27 -27 -26 -26 -26 -26 -26 -26 -26 -26
-27 -27 -27 -27 -27 -27 -26 -27 -27 -27 -27 -27 -27 -27 -27 -27 -27 -28 -28 -28 -28 -28 -28 -28 -28 -28 -28 -28 -27 -27 -27 -27 -27 -27 -27 -27 -27 -26 -26 -26 -26 -26 -26 -27
-27 -27 -27 -27 -27 -27 -27 -27 -27 -27 -27 -27 -27 -27 -28 -28 -28 -28 -28 -28 -28 -28 -28 -28 -28 -28 -28 -27 -27 -27 -27 -27 -27 -27 -27 -27 -27 -26 -27 -27 -27 -27 -27 -27

GFSNW_500_temp_117.txt.gz
Temp
-21 -21 -20 -20 -21 -21 -21 -21 -19 -20 -20 -19 -18 -18 -17 -17 -17 -17 -18 -18 -18 -18 -18 -18 -18 -18 -18 -18 -19 -20 -21 -21 -20 -20 -20 -20 -20 -20 -20 -20 -20 -20 -21 -21
-21 -21 -20 -20 -21 -21 -21 -21 -20 -20 -20 -19 -19 -18 -18 -18 -17 -17 -18 -19 -18 -18 -19 -18 -18 -18 -18 -19 -19 -21 -21 -21 -21 -20 -19 -20 -20 -20 -20 -20 -20 -20 -21 -21
-21 -20 -20 -21 -21 -21 -21 -22 -21 -20 -20 -19 -19 -19 -18 -18 -18 -17 -19 -19 -19 -19 -19 -19 -19 -19 -19 -19 -20 -21 -21 -21 -21 -20 -19 -19 -20 -20 -20 -20 -20 -21 -21 -20
-20 -20 -20 -21 -21 -21 -21 -22 -20 -20 -19 -19 -20 -19 -19 -18 -18 -18 -20 -19 -19 -19 -19 -19 -19 -19 -19 -20 -21 -22 -21 -21 -21 -21 -19 -20 -20 -19 -20 -20 -19 -20 -21 -20
-20 -20 -21 -21 -21 -21 -21 -21 -20 -20 -20 -20 -19 -19 -18 -19 -19 -20 -21 -20 -19 -19 -19 -19 -19 -19 -20 -20 -21 -22 -22 -21 -21 -21 -21 -20 -20 -20 -20 -20 -19 -20 -21 -20
-21 -21 -21 -21 -21 -21 -21 -21 -20 -20 -20 -19 -19 -19 -20 -19 -20 -21 -21 -19 -19 -19 -20 -20 -19 -19 -20 -21 -21 -22 -22 -22 -21 -22 -22 -22 -21 -20 -21 -21 -20 -21 -21 -20
-21 -20 -20 -21 -21 -21 -21 -20 -20 -20 -19 -19 -19 -20 -20 -20 -21 -22 -20 -20 -20 -20 -20 -20 -20 -20 -21 -21 -21 -22 -22 -22 -22 -22 -22 -22 -21 -21 -21 -21 -21 -20 -20 -21
-21 -20 -21 -21 -21 -20 -20 -20 -20 -20 -19 -19 -19 -20 -21 -20 -21 -21 -20 -20 -20 -20 -20 -20 -20 -21 -21 -21 -22 -22 -22 -22 -22 -22 -22 -22 -21 -21 -21 -21 -21 -21 -20 -20
-21 -21 -21 -21 -20 -20 -20 -19 -20 -20 -20 -20 -20 -21 -21 -21 -22 -21 -21 -20 -20 -20 -20 -20 -20 -21 -22 -22 -22 -22 -22 -22 -22 -22 -22 -22 -21 -21 -21 -21 -21 -21 -21 -21
-20 -20 -20 -20 -20 -20 -20 -21 -20 -21 -21 -21 -21 -21 -22 -22 -22 -21 -21 -21 -21 -21 -20 -21 -21 -22 -22 -22 -23 -23 -23 -23 -23 -23 -22 -22 -22 -22 -21 -21 -21 -21 -21 -21
-20 -20 -21 -21 -20 -20 -20 -20 -21 -21 -21 -21 -21 -22 -23 -22 -22 -21 -21 -21 -21 -21 -21 -21 -21 -22 -23 -24 -24 -24 -24 -24 -23 -23 -23 -23 -22 -22 -22 -21 -21 -21 -21 -22
-21 -21 -21 -20 -20 -20 -21 -22 -22 -22 -22 -22 -22 -23 -23 -22 -21 -22 -21 -21 -21 -21 -21 -21 -22 -23 -24 -24 -25 -25 -25 -25 -24 -24 -23 -23 -22 -22 -22 -21 -22 -22 -22 -21
-21 -21 -21 -21 -21 -21 -22 -23 -23 -22 -22 -22 -23 -23 -22 -22 -22 -22 -22 -21 -21 -21 -21 -22 -23 -24 -25 -26 -26 -27 -26 -26 -25 -24 -24 -23 -23 -22 -22 -22 -22 -22 -22 -22
-22 -22 -22 -22 -23 -23 -23 -23 -23 -23 -23 -23 -23 -23 -22 -22 -22 -22 -22 -22 -22 -22 -22 -24 -24 -25 -26 -26 -27 -27 -26 -26 -25 -25 -24 -24 -23 -23 -23 -23 -23 -22 -22 -22
-23 -23 -24 -24 -24 -24 -24 -23 -23 -23 -24 -24 -23 -23 -22 -22 -22 -22 -22 -22 -22 -23 -24 -24 -25 -25 -26 -27 -27 -27 -27 -26 -26 -25 -25 -24 -24 -24 -24 -24 -23 -23 -22 -22
-24 -25 -25 -25 -24 -24 -24 -23 -23 -23 -24 -23 -23 -23 -23 -23 -23 -23 -23 -23 -23 -24 -24 -25 -25 -26 -26 -27 -27 -28 -27 -26 -26 -26 -25 -25 -25 -25 -25 -24 -23 -23 -23 -23
-25 -25 -25 -25 -25 -24 -24 -23 -23 -23 -24 -24 -23 -23 -23 -23 -23 -23 -23 -24 -24 -25 -25 -25 -25 -26 -26 -27 -27 -28 -27 -27 -26 -26 -26 -26 -26 -25 -25 -25 -24 -24 -23 -23
-25 -25 -26 -26 -25 -25 -24 -24 -24 -24 -24 -24 -24 -24 -23 -23 -23 -24 -24 -24 -25 -25 -25 -25 -25 -26 -26 -26 -27 -27 -28 -27 -26 -26 -26 -26 -26 -26 -26 -25 -24 -24 -24 -24
-26 -26 -26 -26 -25 -25 -24 -24 -24 -25 -24 -25 -24 -24 -24 -24 -24 -24 -24 -25 -25 -25 -25 -25 -25 -25 -26 -26 -27 -27 -27 -27 -27 -27 -26 -26 -26 -26 -25 -25 -25 -24 -24 -24
-26 -26 -26 -25 -25 -25 -24 -25 -25 -25 -25 -25 -24 -24 -24 -24 -24 -24 -25 -25 -25 -25 -25 -25 -25 -25 -26 -26 -26 -27 -27 -27 -27 -27 -27 -26 -26 -26 -26 -25 -25 -25 -24 -24
-25 -26 -26 -25 -25 -25 -25 -26 -25 -25 -25 -25 -25 -24 -25 -25 -25 -25 -25 -26 -26 -26 -26 -26 -26 -26 -26 -27 -27 -27 -28 -28 -28 -28 -27 -27 -27 -27 -26 -26 -26 -26 -26 -25
-26 -26 -26 -26 -25 -26 -26 -26 -26 -26 -25 -25 -25 -25 -25 -25 -25 -26 -26 -26 -26 -26 -26 -26 -26 -27 -27 -28 -28 -28 -28 -28 -28 -28 -28 -27 -27 -27 -27 -27 -26 -26 -25 -25
-26 -26 -26 -26 -26 -26 -26 -26 -26 -25 -25 -25 -25 -25 -25 -25 -26 -26 -26 -27 -27 -27 -27 -27 -28 -28 -28 -28 -28 -28 -28 -28 -28 -27 -27 -27 -27 -27 -27 -26 -26 -26 -26 -26
-26 -26 -26 -26 -26 -26 -26 -26 -26 -25 -25 -25 -25 -25 -26 -26 -26 -26 -27 -27 -27 -27 -28 -28 -28 -28 -28 -28 -28 -28 -28 -28 -28 -27 -27 -27 -27 -27 -27 -26 -26 -26 -26 -26
-26 -27 -27 -26 -26 -26 -26 -26 -26 -26 -26 -26 -26 -26 -26 -26 -26 -27 -27 -28 -28 -28 -28 -28 -28 -28 -28 -28 -28 -28 -28 -27 -27 -27 -27 -27 -27 -27 -27 -26 -26 -26 -26 -26
-27 -27 -27 -27 -27 -26 -26 -26 -26 -26 -26 -26 -26 -26 -26 -26 -27 -27 -28 -28 -28 -28 -28 -28 -28 -28 -28 -28 -28 -27 -27 -27 -27 -27 -27 -27 -27 -27 -27 -27 -27 -27 -27 -27
-27 -27 -27 -27 -27 -26 -26 -26 -26 -26 -26 -26 -26 -26 -26 -27 -27 -28 -28 -28 -28 -28 -28 -28 -28 -28 -28 -28 -28 -27 -27 -27 -27 -27 -27 -27 -27 -27 -27 -27 -27 -27 -27 -27

GFSNW_500_temp_123.txt.gz
Temp
-22 -22 -22 -22 -22 -23 -23 -22 -23 -22 -22 -22 -21 -21 -21 -20 -21 -21 -20 -21 -20 -19 -19 -19 -18 -17 -18 -19 -18 -17 -17 -17 -18 -17 -17 -19 -20 -20 -19 -19 -19 -20 -19 -20
-22 -22 -22 -22 -23 -24 -24 -24 -24 -23 -23 -23 -21 -21 -21 -20 -21 -21 -20 -20 -19 -19 -19 -19 -18 -18 -19 -21 -18 -17 -17 -17 -18 -17 -18 -19 -20 -20 -19 -19 -19 -19 -20 -20
-22 -22 -22 -23 -24 -24 -25 -25 -25 -24 -23 -22 -21 -21 -21 -21 -21 -21 -21 -20 -20 -20 -20 -19 -19 -19 -21 -20 -18 -18 -17 -18 -18 -18 -18 -19 -20 -20 -19 -19 -19 -19 -20 -20
-23 -23 -23 -24 -25 -25 -25 -26 -24 -24 -22 -22 -21 -21 -21 -21 -21 -21 -21 -21 -20 -20 -20 -20 -19 -20 -22 -20 -19 -18 -18 -18 -18 -18 -18 -19 -20 -20 -19 -19 -19 -19 -19 -20
-23 -23 -24 -24 -25 -25 -25 -25 -24 -24 -23 -23 -22 -22 -21 -21 -21 -21 -21 -21 -21 -20 -20 -20 -20 -23 -21 -20 -19 -18 -18 -18 -18 -18 -18 -19 -20 -19 -19 -19 -19 -19 -19 -19
-24 -24 -24 -24 -24 -25 -24 -24 -24 -24 -24 -23 -22 -21 -21 -21 -22 -21 -22 -21 -20 -20 -21 -20 -22 -23 -21 -20 -19 -19 -19 -18 -18 -19 -19 -19 -20 -20 -19 -19 -20 -19 -20 -20
-24 -24 -24 -23 -23 -23 -24 -24 -24 -23 -23 -22 -21 -22 -21 -21 -21 -21 -21 -20 -20 -20 -20 -22 -23 -23 -21 -20 -19 -19 -19 -19 -19 -19 -19 -19 -20 -20 -20 -21 -20 -20 -20 -20
-22 -22 -22 -22 -22 -23 -23 -23 -23 -23 -23 -22 -22 -21 -22 -22 -21 -21 -21 -20 -20 -21 -21 -23 -23 -23 -22 -20 -20 -19 -19 -19 -19 -19 -20 -20 -20 -21 -21 -21 -21 -21 -21 -20
-21 -21 -21 -21 -21 -22 -23 -22 -23 -23 -23 -22 -22 -22 -22 -22 -21 -21 -20 -20 -21 -21 -22 -23 -22 -22 -21 -20 -20 -20 -19 -20 -19 -20 -20 -21 -21 -22 -22 -22 -21 -21 -21 -20
-21 -21 -20 -21 -20 -21 -23 -23 -23 -23 -23 -22 -22 -22 -21 -21 -21 -21 -21 -20 -21 -21 -23 -23 -23 -22 -21 -20 -20 -20 -20 -20 -20 -20 -21 -21 -22 -22 -22 -22 -21 -21 -21 -21
-21 -21 -20 -21 -22 -21 -22 -22 -23 -22 -22 -22 -22 -22 -22 -21 -21 -21 -20 -21 -21 -23 -23 -23 -22 -21 -21 -20 -20 -20 -20 -20 -21 -21 -22 -23 -23 -23 -23 -22 -22 -22 -21 -21
-21 -20 -20 -21 -21 -22 -22 -22 -22 -22 -22 -22 -21 -21 -21 -21 -21 -21 -21 -22 -23 -24 -23 -23 -22 -21 -21 -21 -20 -20 -20 -21 -21 -22 -23 -24 -24 -24 -24 -23 -22 -22 -22 -22
-21 -21 -21 -21 -21 -21 -22 -22 -22 -22 -22 -22 -22 -21 -21 -21 -22 -22 -22 -23 -24 -23 -23 -22 -21 -21 -21 -21 -20 -21 -21 -21 -22 -24 -25 -25 -25 -25 -24 -23 -23 -23 -22 -22
-21 -21 -21 -22 -22 -22 -21 -21 -22 -22 -22 -22 -21 -21 -21 -21 -22 -23 -23 -24 -24 -23 -22 -22 -21 -21 -21 -21 -21 -22 -22 -23 -24 -26 -26 -26 -25 -24 -24 -24 -24 -23 -23 -22
-22 -22 -22 -21 -21 -21 -21 -22 -22 -22 -22 -21 -21 -21 -22 -22 -23 -24 -24 -24 -24 -23 -22 -22 -21 -21 -21 -22 -22 -23 -24 -24 -26 -26 -26 -26 -25 -25 -25 -25 -25 -24 -24 -23
-22 -22 -22 -22 -22 -22 -22 -22 -22 -22 -22 -21 -22 -22 -23 -23 -23 -24 -24 -24 -23 -23 -23 -22 -22 -22 -22 -23 -23 -24 -24 -25 -26 -26 -26 -26 -26 -25 -25 -25 -25 -25 -25 -25
-22 -22 -23 -23 -23 -22 -22 -22 -21 -22 -22 -23 -23 -23 -23 -23 -24 -24 -24 -23 -23 -23 -22 -22 -22 -23 -23 -24 -24 -25 -25 -25 -26 -26 -26 -26 -26 -26 -26 -26 -26 -26 -25 -25
-23 -23 -23 -23 -23 -22 -23 -23 -23 -22 -23 -24 -24 -24 -23 -24 -24 -24 -23 -24 -23 -22 -23 -23 -23 -24 -24 -24 -25 -25 -25 -26 -27 -26 -26 -26 -26 -26 -26 -26 -26 -26 -26 -26
-23 -24 -24 -23 -23 -23 -23 -23 -24 -24 -24 -24 -24 -24 -24 -24 -24 -24 -24 -23 -23 -23 -23 -23 -24 -24 -25 -25 -25 -25 -26 -26 -27 -27 -27 -26 -26 -27 -26 -26 -26 -26 -26 -26
-24 -23 -23 -23 -24 -24 -24 -24 -24 -24 -24 -24 -24 -25 -25 -24 -24 -24 -23 -23 -23 -23 -23 -24 -24 -25 -25 -25 -25 -25 -26 -26 -27 -27 -27 -26 -26 -26 -26 -26 -26 -26 -26 -26
-24 -24 -24 -24 -24 -25 -25 -24 -24 -24 -25 -25 -25 -25 -25 -24 -24 -23 -23 -23 -23 -23 -24 -24 -25 -25 -25 -25 -25 -25 -26 -26 -27 -27 -26 -26 -26 -26 -26 -27 -27 -27 -27 -26
-25 -25 -25 -25 -25 -25 -25 -25 -25 -24 -24 -24 -24 -25 -25 -24 -24 -24 -23 -23 -24 -24 -24 -25 -25 -25 -25 -25 -25 -26 -26 -26 -27 -27 -27 -26 -27 -27 -27 -27 -27 -27 -27 -27
-25 -25 -26 -26 -25 -25 -25 -25 -24 -24 -25 -25 -25 -25 -25 -24 -24 -24 -24 -24 -24 -25 -25 -25 -26 -26 -25 -26 -26 -27 -27 -27 -27 -27 -27 -27 -27 -27 -27 -27 -27 -27 -27 -27
-26 -26 -26 -25 -25 -25 -25 -25 -25 -25 -25 -25 -25 -25 -25 -24 -24 -24 -24 -25 -25 -25 -26 -26 -26 -26 -26 -27 -28 -28 -28 -28 -28 -28 -28 -28 -28 -27 -27 -27 -27 -27 -27 -27
-25 -26 -26 -25 -25 -25 -25 -25 -25 -25 -25 -25 -25 -25 -25 -25 -25 -25 -25 -25 -26 -26 -26 -27 -27 -27 -28 -28 -28 -28 -28 -28 -28 -28 -27 -27 -27 -27 -27 -27 -27 -27 -27 -27
-26 -26 -25 -26 -26 -26 -25 -25 -26 -26 -26 -25 -25 -25 -25 -25 -25 -25 -25 -26 -26 -26 -27 -27 -28 -28 -28 -28 -28 -28 -28 -28 -28 -28 -28 -27 -27 -27 -27 -27 -27 -27 -27 -27
-26 -26 -26 -26 -26 -26 -26 -26 -26 -26 -25 -25 -25 -25 -25 -25 -25 -26 -26 -26 -27 -27 -27 -28 -28 -28 -28 -28 -28 -28 -28 -28 -28 -28 -27 -27 -27 -27 -27 -27 -27 -27 -27 -27

GFSNW_500_temp_126.txt.gz
Temp
-22 -22 -22 -23 -22 -22 -22 -22 -23 -22 -22 -22 -21 -21 -21 -21 -21 -21 -21 -21 -21 -21 -21 -21 -20 -20 -20 -19 -19 -19 -20 -21 -20 -18 -17 -17 -17 -17 -18 -19 -19 -19 -20 -19
-23 -23 -23 -23 -23 -23 -23 -23 -23 -22 -22 -22 -21 -21 -21 -21 -21 -21 -21 -21 -21 -21 -21 -20 -20 -20 -20 -20 -19 -19 -20 -21 -19 -18 -18 -17 -17 -17 -18 -19 -19 -19 -19 -19
-23 -23 -23 -23 -23 -23 -23 -23 -23 -22 -21 -21 -21 -21 -22 -21 -21 -21 -21 -21 -21 -21 -21 -21 -21 -20 -21 -21 -20 -19 -21 -21 -19 -20 -19 -18 -17 -17 -18 -19 -19 -19 -19 -19
-23 -23 -23 -23 -23 -23 -23 -24 -23 -22 -22 -22 -23 -22 -22 -22 -22 -21 -21 -21 -21 -21 -22 -21 -21 -21 -21 -20 -20 -20 -21 -21 -19 -19 -19 -18 -18 -18 -18 -20 -19 -19 -19 -19
-24 -24 -24 -24 -24 -24 -24 -24 -23 -23 -23 -23 -23 -22 -22 -23 -23 -22 -21 -21 -22 -22 -21 -21 -21 -21 -20 -20 -20 -21 -22 -20 -19 -19 -19 -18 -18 -18 -18 -19 -19 -19 -19 -19
-24 -24 -24 -24 -24 -25 -24 -24 -24 -24 -23 -23 -23 -23 -24 -24 -23 -23 -22 -22 -22 -21 -22 -21 -21 -20 -20 -20 -21 -23 -22 -20 -20 -19 -19 -18 -18 -19 -18 -19 -20 -19 -19 -19
-25 -25 -25 -25 -25 -25 -24 -24 -24 -24 -23 -23 -23 -23 -24 -24 -24 -23 -23 -22 -21 -22 -22 -21 -21 -21 -20 -21 -23 -23 -22 -21 -20 -19 -19 -18 -18 -18 -19 -19 -20 -20 -20 -20
-25 -25 -25 -25 -25 -25 -25 -25 -24 -23 -23 -24 -24 -24 -24 -24 -24 -23 -22 -22 -22 -22 -21 -21 -21 -21 -21 -22 -23 -23 -21 -21 -20 -19 -20 -19 -19 -19 -19 -19 -19 -21 -21 -21
-25 -25 -25 -25 -25 -25 -25 -25 -24 -24 -24 -23 -24 -24 -24 -24 -24 -23 -22 -22 -21 -21 -22 -21 -20 -22 -22 -23 -23 -22 -21 -21 -20 -20 -20 -20 -19 -19 -20 -20 -20 -21 -21 -21
-25 -25 -25 -25 -24 -24 -25 -24 -24 -25 -24 -24 -25 -23 -24 -24 -24 -23 -23 -22 -21 -21 -21 -21 -21 -22 -23 -23 -22 -22 -21 -21 -20 -20 -20 -20 -19 -20 -21 -21 -21 -22 -22 -22
-24 -24 -24 -24 -24 -24 -24 -24 -24 -24 -24 -24 -24 -24 -23 -23 -23 -22 -22 -22 -21 -21 -21 -21 -22 -23 -23 -23 -22 -21 -21 -21 -20 -20 -20 -20 -21 -21 -22 -22 -23 -23 -23 -22
-23 -23 -22 -22 -23 -23 -24 -24 -24 -24 -25 -24 -23 -23 -23 -23 -23 -23 -22 -22 -22 -22 -22 -22 -23 -23 -23 -22 -23 -22 -21 -20 -21 -21 -20 -21 -21 -22 -23 -24 -24 -24 -23 -23
-22 -22 -22 -22 -22 -21 -23 -23 -24 -25 -24 -23 -23 -23 -23 -23 -23 -22 -22 -22 -22 -22 -23 -24 -23 -23 -23 -23 -22 -21 -21 -21 -21 -21 -22 -22 -22 -24 -25 -25 -25 -24 -24 -23
-22 -22 -21 -21 -21 -22 -22 -22 -23 -23 -23 -23 -23 -23 -23 -23 -22 -22 -22 -22 -23 -23 -23 -24 -23 -24 -23 -22 -22 -21 -21 -21 -22 -22 -22 -23 -25 -25 -25 -25 -25 -25 -24 -24
-22 -22 -22 -22 -21 -22 -23 -23 -24 -24 -24 -23 -23 -23 -23 -22 -22 -22 -22 -23 -23 -23 -23 -23 -24 -23 -23 -22 -22 -21 -22 -22 -22 -23 -23 -24 -26 -25 -25 -25 -25 -25 -25 -25
-22 -22 -22 -22 -23 -23 -23 -24 -24 -23 -23 -24 -23 -22 -22 -22 -22 -23 -23 -23 -24 -23 -23 -24 -23 -24 -23 -22 -22 -23 -23 -23 -23 -23 -24 -25 -26 -26 -25 -25 -25 -25 -25 -25
-23 -22 -22 -22 -22 -23 -22 -22 -22 -23 -23 -23 -23 -22 -23 -23 -23 -23 -23 -24 -24 -24 -24 -24 -23 -23 -23 -23 -22 -23 -23 -24 -24 -24 -25 -26 -26 -26 -26 -25 -25 -25 -25 -25
-23 -23 -23 -23 -23 -23 -23 -24 -23 -22 -22 -22 -22 -23 -23 -23 -23 -23 -24 -24 -24 -24 -23 -24 -23 -23 -23 -22 -23 -23 -24 -24 -25 -25 -26 -26 -26 -26 -26 -26 -26 -26 -26 -26
-23 -23 -23 -23 -23 -24 -24 -23 -23 -23 -23 -22 -23 -24 -23 -24 -24 -24 -24 -24 -24 -24 -23 -23 -23 -23 -23 -23 -24 -24 -24 -25 -25 -25 -26 -27 -26 -26 -26 -26 -26 -26 -26 -26
-23 -22 -23 -23 -23 -23 -23 -23 -23 -23 -22 -23 -24 -24 -24 -24 -24 -24 -24 -24 -24 -24 -23 -23 -23 -23 -24 -23 -25 -25 -25 -25 -25 -26 -27 -27 -27 -26 -27 -27 -27 -27 -27 -26
-23 -23 -23 -23 -23 -23 -23 -23 -23 -24 -24 -24 -24 -25 -25 -25 -25 -24 -24 -24 -24 -23 -23 -23 -23 -24 -24 -24 -25 -25 -25 -25 -26 -26 -27 -27 -27 -27 -26 -27 -26 -27 -26 -27
-24 -23 -24 -24 -24 -24 -24 -24 -24 -24 -24 -25 -25 -24 -24 -24 -24 -25 -24 -24 -23 -23 -23 -23 -23 -24 -24 -25 -25 -25 -25 -25 -26 -26 -27 -27 -27 -27 -27 -27 -27 -27 -27 -27
-24 -24 -25 -25 -24 -24 -24 -24 -24 -24 -24 -24 -24 -24 -25 -25 -25 -24 -24 -23 -23 -23 -23 -24 -24 -24 -25 -25 -25 -25 -25 -26 -26 -27 -27 -27 -27 -27 -27 -27 -27 -27 -27 -27
-25 -25 -25 -24 -24 -24 -24 -24 -25 -25 -25 -24 -24 -25 -25 -25 -24 -24 -24 -24 -23 -24 -24 -25 -25 -25 -25 -26 -26 -26 -27 -27 -27 -27 -28 -28 -28 -28 -28 -27 -27 -27 -27 -27
-26 -25 -25 -25 -25 -25 -25 -25 -25 -25 -25 -25 -25 -25 -25 -25 -24 -24 -24 -24 -24 -24 -25 -25 -26 -26 -26 -27 -27 -28 -28 -28 -28 -28 -28 -28 -28 -28 -27 -27 -27 -27 -27 -27
-26 -25 -25 -25 -25 -25 -25 -25 -25 -25 -25 -25 -25 -25 -25 -24 -24 -24 -24 -24 -25 -25 -25 -26 -26 -27 -27 -28 -28 -28 -28 -28 -28 -28 -28 -28 -28 -27 -27 -27 -27 -27 -27 -27
-25 -26 -25 -25 -25 -25 -25 -25 -25 -25 -25 -25 -25 -25 -25 -25 -24 -25 -25 -25 -25 -26 -26 -26 -27 -28 -28 -28 -28 -28 -28 -28 -28 -28 -28 -28 -28 -28 -27 -27 -27 -27 -27 -27

GFSNW_500_temp_129.txt.gz
Temp
-22 -22 -22 -22 -22 -22 -22 -22 -22 -21 -22 -22 -21 -20 -21 -21 -21 -21 -21 -21 -21 -21 -22 -21 -22 -22 -21 -21 -21 -21 -20 -20 -20 -20 -21 -21 -20 -18 -17 -18 -20 -19 -19 -18
-23 -23 -23 -23 -23 -22 -22 -23 -23 -22 -22 -22 -21 -21 -21 -22 -21 -21 -21 -21 -21 -21 -21 -21 -22 -22 -21 -21 -21 -20 -20 -20 -20 -20 -21 -20 -20 -19 -18 -19 -19 -20 -19 -18
-23 -23 -23 -24 -23 -23 -23 -23 -24 -23 -22 -22 -22 -22 -22 -22 -22 -21 -22 -22 -22 -21 -21 -21 -21 -21 -22 -21 -21 -21 -21 -21 -20 -21 -21 -20 -19 -19 -19 -19 -19 -19 -19 -18
-23 -24 -24 -24 -24 -24 -24 -24 -23 -23 -23 -22 -22 -22 -22 -22 -22 -22 -22 -22 -22 -21 -21 -21 -22 -22 -22 -22 -22 -21 -21 -20 -20 -21 -21 -20 -20 -19 -19 -19 -19 -18 -19 -19
-24 -24 -24 -24 -24 -24 -25 -24 -23 -23 -23 -23 -22 -22 -22 -22 -22 -22 -22 -22 -22 -22 -21 -22 -22 -22 -22 -22 -22 -22 -21 -20 -20 -21 -22 -20 -20 -19 -20 -19 -19 -19 -18 -19
-24 -24 -24 -24 -25 -25 -25 -24 -24 -23 -23 -23 -23 -22 -22 -22 -23 -23 -23 -24 -23 -23 -23 -23 -22 -22 -22 -22 -22 -22 -21 -20 -20 -20 -21 -20 -19 -20 -19 -19 -19 -19 -19 -20
-25 -25 -25 -25 -25 -25 -25 -24 -24 -24 -23 -24 -23 -23 -23 -23 -23 -24 -24 -25 -25 -24 -23 -23 -22 -22 -22 -22 -22 -21 -21 -21 -21 -21 -22 -20 -20 -19 -19 -19 -19 -19 -19 -20
-26 -26 -26 -26 -26 -26 -25 -25 -24 -24 -24 -24 -24 -23 -23 -24 -24 -24 -25 -25 -25 -24 -23 -23 -22 -22 -22 -22 -21 -21 -22 -22 -22 -22 -21 -20 -20 -19 -19 -19 -19 -19 -20 -20
-27 -26 -26 -26 -26 -26 -26 -25 -25 -25 -24 -24 -24 -24 -23 -23 -24 -25 -25 -25 -25 -24 -23 -23 -22 -22 -22 -22 -22 -23 -23 -23 -23 -22 -21 -20 -20 -20 -19 -19 -19 -20 -21 -21
-27 -27 -27 -26 -26 -26 -26 -26 -26 -26 -25 -24 -25 -24 -24 -23 -24 -25 -25 -25 -24 -24 -23 -23 -22 -22 -22 -22 -22 -23 -23 -22 -22 -22 -21 -20 -20 -20 -20 -20 -20 -21 -22 -22
-27 -26 -26 -26 -26 -26 -26 -25 -26 -26 -25 -25 -25 -25 -24 -24 -24 -24 -24 -24 -23 -23 -23 -23 -22 -22 -22 -22 -23 -22 -23 -23 -22 -21 -21 -20 -21 -21 -21 -21 -21 -22 -23 -24
-27 -26 -26 -26 -26 -26 -26 -26 -26 -26 -26 -25 -25 -25 -24 -24 -25 -25 -24 -24 -23 -23 -23 -23 -23 -23 -23 -23 -23 -23 -23 -22 -22 -22 -21 -21 -21 -21 -21 -21 -21 -23 -24 -25
-26 -26 -26 -26 -26 -26 -26 -26 -26 -26 -26 -26 -25 -25 -25 -25 -24 -25 -24 -24 -23 -23 -23 -23 -23 -23 -23 -23 -23 -23 -22 -22 -22 -22 -22 -22 -21 -22 -22 -22 -23 -24 -25 -26
-25 -25 -25 -25 -25 -25 -25 -25 -25 -26 -26 -25 -25 -25 -25 -25 -24 -24 -24 -23 -23 -23 -23 -23 -24 -24 -24 -23 -23 -23 -23 -23 -23 -22 -23 -23 -23 -22 -23 -23 -24 -25 -26 -26
-23 -23 -23 -24 -24 -24 -25 -25 -25 -26 -25 -25 -25 -24 -25 -25 -24 -24 -23 -23 -23 -23 -23 -23 -24 -24 -23 -23 -23 -23 -23 -23 -23 -23 -23 -23 -23 -23 -23 -25 -25 -25 -25 -25
-22 -22 -22 -23 -24 -24 -26 -26 -26 -25 -25 -25 -25 -25 -24 -25 -24 -24 -24 -23 -23 -24 -24 -24 -23 -23 -23 -24 -23 -23 -23 -23 -23 -23 -24 -24 -24 -23 -25 -26 -25 -25 -25 -26
-22 -22 -22 -23 -22 -22 -23 -23 -24 -25 -25 -25 -25 -25 -25 -24 -24 -24 -24 -24 -24 -24 -24 -24 -23 -24 -24 -23 -23 -23 -23 -23 -24 -24 -24 -24 -24 -24 -26 -26 -25 -25 -26 -26
-23 -23 -23 -23 -24 -24 -24 -25 -25 -25 -25 -25 -25 -24 -24 -23 -23 -24 -24 -24 -24 -24 -24 -24 -24 -24 -23 -23 -23 -23 -23 -24 -24 -24 -24 -24 -24 -25 -26 -26 -26 -26 -26 -26
-23 -23 -23 -24 -24 -24 -24 -24 -25 -25 -25 -24 -23 -23 -23 -23 -24 -24 -24 -24 -24 -24 -24 -23 -23 -23 -22 -23 -24 -24 -24 -24 -25 -25 -25 -25 -25 -26 -26 -26 -26 -26 -26 -26
-24 -24 -24 -24 -24 -24 -24 -25 -25 -25 -25 -24 -24 -24 -24 -24 -24 -24 -24 -24 -24 -24 -24 -24 -23 -23 -23 -24 -24 -24 -25 -25 -25 -25 -25 -26 -26 -27 -27 -27 -27 -27 -27 -27
-24 -24 -24 -24 -24 -25 -24 -24 -24 -24 -24 -24 -24 -24 -24 -25 -25 -25 -25 -25 -24 -24 -24 -23 -23 -23 -23 -24 -24 -24 -25 -25 -25 -25 -25 -26 -27 -27 -27 -27 -27 -27 -27 -27
-24 -24 -24 -24 -24 -24 -24 -24 -23 -23 -23 -24 -24 -24 -25 -25 -25 -25 -25 -24 -24 -23 -23 -23 -23 -23 -23 -24 -24 -24 -25 -25 -25 -25 -26 -27 -27 -27 -27 -27 -27 -27 -27 -27
-24 -24 -23 -24 -24 -23 -24 -23 -23 -23 -24 -24 -24 -24 -25 -25 -25 -25 -25 -24 -24 -23 -23 -23 -23 -24 -23 -24 -24 -25 -25 -25 -25 -26 -27 -27 -27 -27 -27 -27 -27 -27 -28 -28
-24 -24 -24 -24 -23 -23 -24 -24 -24 -24 -24 -25 -25 -25 -25 -25 -25 -25 -24 -24 -24 -23 -23 -23 -23 -24 -24 -24 -25 -25 -25 -26 -27 -27 -27 -28 -28 -28 -28 -28 -28 -28 -28 -28
-24 -24 -24 -24 -24 -25 -25 -25 -25 -25 -25 -25 -25 -25 -25 -25 -25 -25 -24 -24 -24 -24 -24 -23 -24 -24 -25 -25 -25 -26 -27 -28 -28 -28 -28 -28 -28 -28 -28 -28 -28 -28 -28 -28
-25 -25 -25 -25 -25 -25 -25 -25 -25 -25 -26 -26 -26 -25 -25 -25 -25 -24 -24 -24 -24 -23 -24 -24 -24 -25 -25 -26 -27 -27 -28 -28 -28 -28 -28 -28 -28 -28 -28 -28 -28 -28 -28 -28
-25 -26 -26 -26 -25 -25 -26 -26 -26 -25 -25 -25 -25 -25 -25 -25 -24 -24 -24 -24 -24 -24 -24 -25 -25 -25 -26 -27 -28 -28 -28 -28 -28 -28 -28 -28 -28 -28 -28 -28 -28 -28 -28 -28

GFSNW_500_temp_132.txt.gz
Temp
-23 -23 -23 -23 -23 -23 -23 -23 -23 -22 -22 -22 -21 -21 -20 -21 -21 -21 -21 -21 -21 -21 -21 -21 -21 -21 -21 -21 -22 -21 -21 -21 -20 -20 -21 -21 -21 -21 -22 -21 -20 -19 -20 -18
-23 -23 -23 -23 -23 -23 -23 -23 -23 -23 -22 -22 -21 -21 -21 -21 -21 -22 -21 -21 -22 -22 -21 -21 -21 -21 -21 -22 -22 -21 -22 -21 -21 -21 -21 -22 -22 -22 -21 -21 -20 -20 -20 -19
-23 -23 -23 -23 -23 -23 -23 -23 -23 -23 -22 -22 -22 -22 -21 -21 -22 -22 -22 -22 -22 -22 -21 -21 -21 -21 -22 -22 -22 -22 -22 -21 -20 -21 -21 -21 -22 -22 -21 -21 -20 -20 -20 -20
-23 -24 -24 -24 -24 -24 -24 -23 -23 -23 -22 -22 -22 -23 -22 -22 -22 -23 -23 -22 -22 -22 -22 -22 -22 -22 -22 -22 -22 -22 -22 -21 -20 -21 -21 -21 -21 -22 -22 -21 -20 -20 -20 -20
-24 -24 -24 -24 -24 -24 -24 -23 -23 -23 -23 -23 -23 -23 -22 -22 -23 -23 -23 -22 -23 -22 -22 -22 -22 -22 -22 -22 -22 -22 -21 -21 -21 -20 -21 -20 -20 -21 -21 -20 -20 -20 -20 -20
-24 -24 -24 -24 -25 -25 -25 -23 -23 -23 -23 -23 -23 -22 -23 -23 -24 -23 -23 -23 -23 -23 -23 -23 -23 -22 -23 -23 -22 -22 -21 -21 -21 -20 -21 -21 -21 -21 -20 -20 -20 -20 -20 -20
-25 -25 -25 -24 -25 -25 -25 -24 -24 -24 -24 -24 -23 -24 -24 -24 -24 -23 -23 -23 -23 -24 -24 -24 -23 -23 -23 -22 -22 -22 -22 -22 -22 -21 -21 -21 -21 -21 -21 -20 -20 -20 -20 -21
-26 -25 -25 -25 -25 -25 -25 -25 -25 -24 -24 -24 -24 -24 -24 -24 -24 -23 -23 -24 -24 -24 -24 -24 -25 -24 -23 -23 -22 -22 -22 -22 -22 -22 -22 -22 -22 -21 -21 -21 -20 -20 -21 -21
-26 -26 -26 -26 -26 -26 -26 -26 -25 -25 -25 -24 -24 -24 -24 -24 -24 -24 -24 -24 -24 -25 -25 -25 -25 -24 -23 -22 -22 -22 -22 -22 -22 -24 -23 -23 -22 -21 -21 -20 -20 -21 -21 -21
-27 -27 -27 -27 -27 -27 -27 -26 -26 -26 -25 -25 -25 -24 -24 -24 -24 -24 -24 -24 -25 -25 -25 -25 -25 -24 -24 -23 -23 -22 -23 -23 -23 -24 -23 -23 -21 -21 -21 -21 -21 -20 -21 -21
-27 -27 -27 -27 -28 -28 -27 -27 -27 -26 -26 -25 -25 -25 -24 -24 -24 -24 -25 -25 -25 -25 -25 -25 -24 -24 -23 -23 -23 -24 -23 -23 -24 -23 -23 -22 -22 -21 -21 -21 -20 -20 -20 -21
-27 -27 -28 -28 -28 -28 -28 -27 -27 -27 -26 -25 -26 -26 -25 -25 -25 -25 -25 -25 -25 -25 -25 -24 -25 -24 -23 -24 -24 -24 -24 -23 -23 -23 -23 -22 -22 -21 -21 -21 -21 -21 -21 -21
-27 -27 -28 -28 -28 -28 -27 -27 -27 -27 -26 -26 -26 -25 -25 -25 -25 -25 -25 -25 -26 -25 -25 -24 -23 -24 -24 -24 -24 -24 -23 -23 -23 -23 -23 -22 -22 -21 -21 -22 -22 -22 -22 -23
-28 -28 -28 -28 -28 -27 -27 -27 -27 -27 -27 -26 -25 -25 -25 -25 -25 -25 -25 -25 -26 -25 -25 -24 -24 -24 -24 -24 -25 -24 -23 -23 -23 -23 -23 -22 -22 -22 -22 -23 -23 -23 -23 -25
-28 -28 -28 -27 -27 -27 -27 -27 -27 -27 -27 -26 -26 -26 -26 -25 -25 -25 -26 -26 -26 -25 -24 -24 -24 -24 -24 -25 -25 -24 -24 -23 -23 -23 -22 -22 -23 -23 -23 -24 -24 -24 -25 -25
-27 -28 -27 -27 -27 -27 -28 -28 -28 -27 -27 -26 -26 -26 -26 -25 -25 -25 -26 -26 -25 -25 -25 -24 -24 -24 -24 -25 -24 -24 -24 -23 -23 -23 -23 -23 -23 -24 -24 -24 -24 -25 -25 -25
-26 -26 -26 -26 -27 -27 -26 -25 -25 -26 -26 -26 -26 -26 -26 -26 -26 -26 -26 -25 -25 -24 -24 -24 -24 -24 -24 -24 -24 -24 -23 -23 -23 -23 -23 -24 -24 -24 -24 -24 -25 -26 -25 -26
-23 -24 -25 -26 -26 -26 -26 -26 -26 -26 -26 -26 -26 -25 -26 -26 -25 -26 -25 -25 -24 -24 -24 -24 -24 -25 -25 -24 -24 -24 -23 -23 -23 -24 -24 -24 -25 -25 -25 -25 -26 -26 -26 -26
-23 -25 -26 -28 -27 -26 -26 -26 -27 -27 -26 -26 -26 -25 -26 -26 -26 -25 -25 -25 -24 -24 -24 -24 -25 -25 -24 -24 -23 -23 -23 -23 -24 -24 -25 -25 -25 -25 -25 -26 -26 -26 -26 -26
-23 -24 -25 -26 -26 -26 -27 -27 -27 -27 -27 -26 -25 -25 -25 -25 -25 -25 -25 -24 -25 -24 -25 -25 -24 -24 -23 -23 -23 -23 -23 -24 -24 -25 -25 -25 -25 -26 -26 -26 -27 -27 -27 -27
-24 -24 -25 -26 -26 -26 -26 -26 -27 -27 -27 -25 -24 -25 -25 -25 -25 -25 -25 -25 -25 -25 -25 -25 -24 -23 -24 -23 -23 -23 -24 -24 -24 -25 -25 -26 -26 -26 -27 -27 -27 -27 -27 -27
-24 -24 -25 -25 -26 -26 -26 -26 -25 -24 -24 -24 -24 -25 -25 -26 -26 -25 -25 -26 -26 -25 -25 -24 -23 -24 -23 -23 -23 -23 -24 -24 -24 -25 -25 -26 -26 -26 -27 -27 -27 -27 -27 -27
-25 -25 -24 -25 -25 -25 -25 -24 -23 -23 -23 -23 -24 -25 -26 -25 -25 -25 -26 -25 -25 -25 -24 -23 -23 -23 -23 -23 -23 -23 -24 -24 -25 -25 -25 -26 -26 -27 -27 -27 -27 -28 -28 -28
-25 -25 -24 -24 -24 -23 -23 -23 -24 -24 -25 -25 -25 -25 -25 -25 -25 -26 -25 -25 -25 -24 -23 -23 -23 -23 -23 -23 -24 -24 -24 -25 -25 -26 -26 -27 -27 -28 -28 -28 -28 -28 -28 -28
-25 -25 -24 -24 -24 -24 -25 -25 -25 -25 -25 -25 -25 -25 -25 -25 -25 -25 -25 -25 -24 -24 -24 -23 -23 -23 -24 -24 -24 -24 -25 -25 -26 -27 -28 -28 -28 -28 -28 -28 -28 -28 -29 -29
-24 -24 -24 -24 -25 -25 -25 -25 -25 -25 -25 -26 -26 -25 -25 -25 -25 -25 -25 -25 -24 -24 -24 -23 -23 -24 -24 -24 -25 -25 -26 -27 -27 -28 -28 -28 -28 -28 -28 -28 -28 -28 -28 -29
-25 -25 -25 -25 -25 -25 -25 -25 -25 -25 -25 -25 -25 -25 -25 -25 -25 -25 -25 -24 -24 -24 -24 -24 -24 -24 -24 -25 -26 -26 -27 -27 -28 -28 -28 -28 -28 -28 -28 -28 -29 -29 -29 -29

GFSNW_500_temp_135.txt.gz
Temp
-23 -22 -22 -22 -22 -22 -22 -22 -22 -22 -22 -22 -21 -20 -20 -21 -21 -21 -21 -21 -21 -21 -21 -21 -21 -21 -21 -21 -21 -20 -21 -21 -20 -20 -21 -21 -20 -20 -20 -21 -21 -21 -21 -20
-24 -24 -23 -23 -22 -23 -23 -23 -23 -23 -23 -22 -21 -21 -21 -22 -21 -22 -21 -21 -22 -22 -22 -22 -21 -21 -21 -21 -21 -21 -21 -21 -21 -20 -21 -21 -21 -20 -21 -22 -22 -21 -21 -21
-24 -24 -24 -24 -24 -24 -24 -24 -24 -23 -23 -22 -22 -22 -22 -22 -22 -22 -22 -22 -22 -22 -22 -22 -21 -21 -21 -21 -21 -21 -22 -21 -21 -21 -21 -21 -21 -21 -21 -22 -21 -21 -21 -21
-24 -25 -25 -25 -24 -24 -24 -24 -24 -23 -23 -22 -23 -23 -23 -22 -22 -22 -23 -22 -22 -23 -22 -22 -22 -22 -22 -21 -22 -22 -22 -22 -22 -22 -22 -22 -21 -21 -21 -21 -22 -22 -21 -21
-25 -25 -25 -24 -24 -24 -24 -24 -24 -23 -23 -23 -23 -23 -22 -23 -23 -23 -23 -23 -23 -23 -23 -23 -22 -22 -22 -21 -22 -22 -22 -22 -22 -21 -22 -22 -20 -20 -20 -21 -22 -21 -21 -21
-25 -25 -25 -25 -25 -25 -24 -24 -24 -24 -23 -23 -23 -23 -23 -23 -24 -24 -24 -24 -24 -23 -23 -23 -23 -22 -22 -22 -22 -22 -22 -22 -22 -21 -22 -22 -20 -21 -21 -21 -22 -22 -21 -20
-26 -26 -25 -26 -26 -25 -25 -24 -24 -25 -24 -24 -23 -24 -24 -24 -24 -24 -24 -24 -23 -24 -23 -23 -23 -22 -22 -23 -22 -23 -23 -23 -23 -22 -22 -21 -21 -21 -21 -22 -22 -22 -21 -20
-26 -26 -26 -26 -26 -26 -25 -25 -25 -24 -24 -24 -24 -24 -24 -25 -24 -24 -24 -24 -24 -24 -23 -23 -23 -23 -23 -23 -23 -24 -24 -23 -23 -23 -22 -22 -22 -22 -22 -22 -22 -22 -21 -21
-27 -27 -26 -26 -26 -26 -26 -26 -25 -25 -24 -24 -25 -24 -25 -25 -25 -24 -24 -24 -24 -24 -23 -23 -23 -23 -24 -24 -24 -25 -24 -24 -23 -23 -23 -23 -23 -22 -23 -22 -22 -22 -21 -21
-27 -27 -27 -27 -26 -27 -26 -26 -26 -25 -25 -24 -25 -25 -25 -25 -25 -25 -25 -24 -24 -24 -24 -24 -24 -24 -25 -25 -25 -24 -24 -23 -22 -22 -23 -23 -23 -24 -24 -23 -22 -22 -21 -21
-28 -27 -27 -27 -27 -27 -26 -26 -27 -27 -25 -25 -25 -25 -25 -25 -25 -25 -24 -25 -24 -24 -24 -24 -24 -24 -25 -25 -25 -24 -24 -23 -23 -23 -24 -23 -24 -24 -24 -23 -22 -21 -21 -21
-28 -28 -28 -28 -27 -27 -27 -26 -27 -27 -27 -26 -26 -25 -25 -25 -25 -25 -25 -25 -25 -25 -25 -25 -25 -25 -25 -25 -24 -25 -24 -24 -24 -24 -24 -24 -24 -24 -23 -22 -22 -21 -21 -21
-28 -28 -28 -28 -28 -28 -27 -27 -28 -28 -28 -27 -26 -26 -26 -25 -25 -25 -25 -25 -25 -25 -26 -25 -25 -25 -25 -25 -24 -24 -24 -24 -24 -24 -24 -24 -24 -23 -23 -22 -22 -22 -22 -22
-28 -29 -28 -28 -28 -28 -28 -28 -28 -28 -28 -27 -26 -26 -26 -26 -25 -25 -25 -26 -26 -25 -26 -26 -25 -25 -25 -25 -25 -24 -24 -24 -24 -24 -24 -23 -23 -23 -23 -23 -22 -22 -23 -23
-28 -28 -28 -29 -29 -29 -29 -29 -29 -29 -28 -27 -27 -27 -27 -27 -26 -26 -25 -26 -26 -26 -26 -26 -26 -25 -25 -24 -24 -24 -24 -24 -25 -24 -24 -23 -23 -23 -23 -23 -23 -23 -23 -24
-28 -28 -28 -29 -29 -30 -31 -30 -29 -28 -28 -28 -28 -28 -28 -27 -26 -26 -26 -26 -26 -26 -25 -25 -25 -25 -25 -24 -24 -24 -24 -24 -24 -24 -24 -23 -24 -23 -23 -23 -24 -24 -24 -24
-29 -29 -29 -30 -30 -29 -27 -28 -28 -28 -28 -28 -28 -27 -27 -27 -26 -26 -26 -26 -26 -26 -25 -25 -25 -25 -25 -24 -23 -24 -25 -25 -25 -24 -24 -24 -23 -23 -24 -24 -24 -25 -24 -25
-28 -29 -30 -30 -29 -29 -27 -28 -29 -29 -28 -28 -27 -27 -27 -26 -26 -26 -26 -26 -27 -26 -26 -25 -25 -25 -25 -23 -24 -25 -25 -24 -24 -24 -24 -23 -23 -24 -24 -25 -25 -25 -25 -26
-29 -30 -31 -30 -29 -27 -28 -30 -30 -29 -29 -27 -27 -26 -27 -26 -26 -26 -26 -26 -26 -26 -25 -25 -25 -24 -24 -24 -25 -25 -24 -24 -24 -24 -23 -23 -24 -24 -25 -25 -25 -26 -26 -26
-29 -30 -29 -27 -26 -29 -30 -30 -30 -29 -27 -27 -26 -26 -26 -26 -26 -26 -26 -26 -26 -25 -25 -25 -24 -24 -24 -24 -24 -24 -24 -24 -23 -23 -23 -24 -24 -25 -25 -26 -26 -26 -27 -27
-27 -26 -26 -29 -29 -29 -29 -29 -29 -28 -27 -26 -26 -26 -26 -26 -26 -26 -26 -26 -26 -26 -25 -25 -24 -24 -24 -24 -24 -24 -24 -23 -23 -23 -24 -24 -25 -25 -26 -26 -26 -27 -27 -27
-25 -27 -28 -28 -28 -28 -29 -28 -29 -27 -26 -26 -26 -26 -26 -26 -26 -26 -26 -26 -26 -26 -25 -24 -24 -25 -25 -24 -24 -23 -23 -23 -23 -23 -24 -24 -25 -25 -26 -26 -27 -27 -27 -27
-27 -28 -29 -28 -28 -29 -29 -28 -26 -25 -25 -25 -25 -26 -26 -26 -26 -26 -26 -26 -26 -25 -24 -23 -25 -25 -24 -24 -23 -23 -23 -23 -23 -24 -24 -25 -25 -25 -26 -27 -28 -28 -28 -28
-28 -28 -28 -28 -27 -26 -25 -25 -24 -24 -24 -25 -25 -25 -25 -25 -26 -26 -26 -26 -25 -24 -24 -25 -25 -24 -24 -23 -23 -23 -23 -24 -24 -24 -25 -25 -26 -27 -27 -28 -28 -28 -28 -28
-27 -27 -27 -26 -26 -25 -25 -25 -25 -25 -26 -26 -26 -26 -26 -26 -26 -26 -26 -25 -25 -25 -25 -24 -24 -23 -23 -23 -23 -23 -24 -24 -24 -25 -25 -26 -27 -28 -28 -28 -28 -29 -29 -29
-26 -26 -25 -25 -25 -25 -25 -25 -26 -26 -26 -25 -26 -26 -26 -26 -26 -26 -25 -25 -25 -25 -24 -24 -23 -23 -23 -23 -24 -24 -24 -25 -25 -26 -27 -27 -27 -28 -28 -28 -28 -29 -29 -29
-25 -25 -25 -25 -25 -25 -25 -25 -25 -26 -26 -26 -26 -25 -25 -25 -25 -25 -25 -25 -25 -25 -24 -24 -24 -24 -24 -24 -24 -25 -25 -26 -26 -27 -28 -28 -28 -28 -28 -28 -28 -28 -29 -29

GFSNW_500_temp_138.txt.gz
Temp
-23 -22 -22 -22 -22 -22 -21 -21 -21 -21 -21 -21 -20 -19 -19 -19 -20 -21 -22 -22 -22 -21 -21 -21 -21 -21 -21 -21 -21 -21 -21 -20 -20 -20 -21 -21 -21 -21 -21 -21 -21 -21 -22 -20
-23 -23 -23 -23 -23 -22 -22 -22 -22 -22 -22 -21 -20 -20 -20 -20 -22 -22 -22 -22 -22 -22 -22 -22 -21 -21 -21 -22 -22 -21 -21 -21 -20 -20 -21 -21 -21 -21 -21 -21 -20 -20 -21 -21
-24 -24 -23 -23 -23 -24 -23 -23 -23 -22 -22 -21 -21 -21 -22 -22 -23 -23 -23 -22 -22 -22 -22 -22 -22 -22 -22 -22 -22 -22 -22 -21 -21 -21 -21 -21 -21 -21 -22 -22 -20 -21 -20 -21
-25 -25 -24 -24 -24 -23 -23 -23 -23 -23 -23 -23 -23 -23 -22 -22 -23 -23 -23 -23 -23 -23 -23 -23 -22 -22 -22 -22 -22 -22 -22 -21 -22 -22 -22 -22 -21 -21 -22 -22 -22 -21 -21 -21
-25 -25 -25 -25 -25 -25 -24 -25 -23 -23 -23 -23 -23 -23 -23 -23 -24 -24 -24 -24 -24 -24 -23 -23 -22 -22 -22 -22 -22 -22 -22 -22 -22 -22 -22 -22 -22 -21 -21 -22 -22 -21 -21 -20
-26 -26 -25 -25 -26 -26 -24 -25 -25 -24 -24 -24 -24 -24 -23 -24 -24 -24 -25 -24 -24 -23 -24 -23 -23 -23 -23 -23 -22 -22 -22 -22 -22 -22 -22 -22 -22 -22 -22 -22 -22 -21 -21 -22
-27 -26 -26 -26 -26 -26 -26 -24 -25 -25 -25 -24 -24 -24 -24 -24 -24 -24 -24 -24 -23 -24 -24 -23 -23 -23 -23 -23 -22 -22 -23 -23 -23 -23 -23 -22 -22 -22 -22 -22 -22 -21 -21 -22
-28 -27 -27 -26 -26 -26 -26 -25 -25 -25 -25 -25 -25 -24 -25 -25 -25 -24 -24 -24 -24 -24 -24 -24 -24 -23 -23 -23 -23 -23 -24 -24 -24 -24 -24 -23 -23 -23 -22 -22 -22 -22 -22 -22
-28 -28 -27 -27 -27 -27 -26 -26 -25 -25 -25 -25 -25 -25 -25 -25 -25 -24 -24 -25 -24 -24 -24 -24 -24 -23 -23 -23 -23 -24 -24 -25 -25 -25 -24 -23 -23 -23 -23 -23 -23 -23 -22 -23
-29 -29 -28 -28 -27 -27 -27 -26 -26 -26 -25 -25 -25 -25 -25 -26 -25 -25 -25 -25 -25 -25 -24 -24 -24 -24 -23 -23 -23 -24 -25 -25 -26 -25 -25 -24 -24 -24 -23 -23 -23 -23 -24 -23
-30 -30 -29 -28 -28 -28 -27 -27 -27 -27 -26 -25 -26 -25 -25 -26 -26 -26 -26 -26 -25 -25 -25 -24 -24 -24 -24 -24 -24 -24 -25 -25 -25 -25 -25 -24 -24 -24 -24 -24 -24 -24 -23 -23
-31 -30 -30 -29 -28 -28 -28 -27 -27 -27 -27 -26 -26 -26 -26 -26 -26 -26 -25 -25 -25 -25 -25 -25 -25 -24 -24 -24 -24 -25 -25 -25 -25 -24 -24 -24 -24 -24 -24 -24 -24 -24 -23 -22
-31 -31 -30 -29 -29 -29 -28 -28 -28 -28 -27 -27 -26 -26 -26 -26 -26 -26 -26 -26 -25 -26 -25 -26 -25 -25 -25 -24 -24 -25 -25 -25 -25 -24 -24 -24 -24 -24 -24 -24 -24 -24 -23 -23
-31 -31 -30 -29 -29 -29 -29 -28 -28 -28 -28 -27 -27 -27 -26 -27 -26 -26 -26 -26 -26 -26 -26 -25 -25 -25 -25 -24 -25 -25 -25 -25 -24 -24 -25 -24 -24 -24 -24 -24 -24 -23 -23 -23
-31 -30 -30 -30 -29 -29 -30 -30 -28 -28 -29 -28 -27 -27 -27 -27 -27 -27 -26 -26 -26 -26 -26 -25 -25 -25 -25 -25 -25 -25 -25 -25 -24 -24 -24 -24 -24 -24 -24 -24 -23 -23 -23 -23
-31 -30 -30 -30 -30 -30 -31 -30 -30 -30 -29 -29 -28 -28 -28 -27 -27 -26 -26 -26 -26 -26 -26 -25 -25 -26 -26 -26 -25 -25 -25 -25 -25 -24 -25 -24 -25 -24 -24 -24 -24 -24 -24 -23
-31 -30 -30 -30 -30 -31 -31 -30 -29 -29 -29 -29 -28 -29 -28 -27 -27 -26 -27 -26 -26 -26 -26 -26 -26 -26 -26 -25 -24 -25 -25 -25 -25 -25 -25 -24 -24 -24 -24 -24 -24 -24 -24 -24
-31 -31 -30 -31 -31 -31 -31 -30 -30 -31 -30 -30 -29 -29 -29 -28 -27 -27 -27 -27 -26 -26 -26 -26 -26 -26 -26 -24 -25 -26 -25 -25 -25 -25 -25 -25 -24 -24 -24 -24 -24 -24 -24 -25
-31 -31 -31 -32 -32 -32 -32 -32 -31 -31 -31 -30 -29 -29 -29 -28 -28 -27 -27 -27 -27 -26 -26 -26 -26 -26 -25 -25 -25 -25 -25 -25 -25 -25 -25 -25 -24 -24 -24 -24 -24 -25 -25 -26
-32 -33 -33 -32 -31 -31 -33 -32 -32 -31 -30 -29 -29 -29 -28 -28 -28 -27 -27 -27 -27 -27 -26 -26 -26 -25 -25 -25 -25 -25 -25 -24 -25 -25 -25 -24 -24 -24 -24 -24 -25 -25 -26 -26
-33 -33 -33 -33 -33 -33 -32 -32 -31 -30 -30 -28 -28 -28 -28 -28 -27 -27 -27 -27 -27 -26 -26 -26 -25 -25 -25 -25 -24 -24 -24 -24 -25 -25 -24 -24 -24 -24 -24 -25 -25 -26 -26 -27
-30 -32 -32 -33 -32 -32 -31 -30 -30 -29 -28 -28 -28 -28 -28 -27 -28 -28 -27 -27 -27 -27 -27 -26 -25 -26 -25 -24 -24 -24 -24 -24 -24 -24 -24 -24 -24 -24 -25 -25 -26 -26 -27 -27
-31 -30 -30 -30 -30 -30 -29 -28 -27 -27 -27 -27 -27 -27 -27 -27 -27 -27 -27 -27 -27 -26 -25 -25 -25 -25 -25 -24 -24 -24 -24 -24 -23 -24 -24 -24 -24 -25 -25 -25 -26 -27 -27 -28
-29 -29 -29 -29 -28 -27 -27 -27 -27 -27 -27 -27 -27 -27 -27 -27 -27 -27 -26 -26 -26 -26 -25 -25 -25 -25 -25 -24 -24 -24 -23 -24 -24 -24 -24 -24 -25 -25 -26 -26 -27 -27 -28 -28
-28 -28 -28 -27 -27 -27 -27 -26 -26 -26 -26 -26 -26 -27 -27 -27 -27 -26 -26 -26 -25 -25 -25 -25 -25 -25 -25 -24 -24 -24 -24 -24 -24 -24 -25 -25 -25 -26 -27 -27 -27 -28 -28 -28
-27 -27 -27 -26 -26 -26 -26 -26 -26 -26 -27 -27 -27 -26 -26 -26 -26 -26 -26 -25 -25 -26 -26 -25 -25 -25 -24 -24 -24 -24 -24 -24 -25 -25 -25 -26 -26 -27 -27 -27 -28 -28 -28 -28
-26 -26 -26 -26 -26 -26 -26 -26 -26 -26 -26 -26 -26 -26 -26 -25 -25 -25 -25 -25 -26 -26 -26 -26 -25 -24 -24 -24 -24 -24 -25 -25 -25 -26 -26 -26 -27 -27 -28 -28 -28 -28 -28 -29

GFSNW_500_temp_141.txt.gz
Temp
-23 -22 -22 -22 -21 -21 -22 -22 -21 -21 -22 -21 -21 -19 -20 -19 -20 -21 -21 -21 -22 -22 -22 -22 -22 -22 -22 -21 -21 -21 -20 -20 -20 -20 -21 -21 -21 -21 -21 -21 -21 -21 -21 -19
-23 -23 -23 -23 -22 -21 -23 -23 -22 -22 -22 -22 -20 -20 -20 -20 -20 -22 -22 -22 -23 -23 -23 -23 -23 -23 -22 -22 -21 -21 -21 -21 -21 -21 -21 -21 -21 -21 -21 -21 -21 -21 -21 -20
-24 -24 -24 -23 -23 -23 -23 -23 -22 -22 -22 -21 -21 -21 -21 -21 -22 -22 -22 -23 -23 -24 -24 -24 -23 -23 -22 -22 -22 -22 -22 -21 -22 -22 -22 -22 -21 -22 -22 -22 -21 -22 -21 -21
-25 -25 -24 -24 -24 -23 -23 -23 -23 -23 -22 -21 -21 -22 -22 -22 -21 -22 -24 -24 -24 -24 -25 -24 -24 -23 -22 -22 -22 -22 -22 -22 -22 -22 -22 -22 -22 -22 -22 -22 -22 -22 -21 -21
-26 -26 -25 -25 -25 -25 -24 -24 -24 -23 -23 -23 -23 -23 -23 -23 -24 -24 -24 -24 -25 -25 -25 -24 -24 -23 -23 -23 -23 -23 -22 -22 -22 -22 -22 -22 -22 -22 -22 -22 -22 -22 -22 -21
-27 -27 -26 -26 -25 -25 -24 -24 -24 -24 -24 -24 -24 -23 -24 -24 -24 -24 -24 -24 -25 -25 -25 -24 -23 -23 -23 -23 -23 -23 -23 -23 -23 -22 -22 -22 -22 -22 -23 -22 -22 -23 -22 -22
-28 -28 -27 -27 -26 -26 -25 -24 -24 -24 -24 -24 -24 -24 -24 -24 -25 -25 -24 -25 -25 -24 -24 -24 -24 -24 -24 -23 -23 -23 -23 -23 -23 -23 -23 -22 -22 -22 -23 -22 -23 -23 -23 -22
-29 -29 -28 -27 -27 -26 -26 -26 -25 -25 -24 -24 -25 -24 -25 -25 -26 -26 -26 -26 -26 -25 -25 -24 -24 -24 -24 -23 -23 -23 -23 -23 -23 -23 -23 -23 -22 -24 -24 -24 -24 -23 -23 -22
-29 -29 -29 -28 -28 -27 -27 -27 -26 -26 -26 -25 -26 -26 -26 -26 -26 -26 -26 -26 -25 -25 -25 -24 -24 -24 -24 -23 -23 -23 -24 -24 -24 -24 -24 -23 -24 -24 -24 -24 -24 -24 -23 -24
-29 -29 -29 -29 -28 -28 -27 -27 -27 -27 -26 -26 -26 -26 -26 -26 -26 -25 -26 -26 -25 -24 -25 -24 -24 -24 -24 -24 -24 -24 -24 -24 -24 -25 -25 -24 -25 -24 -24 -24 -24 -24 -24 -24
-29 -30 -30 -30 -29 -29 -28 -27 -27 -27 -27 -26 -26 -26 -26 -26 -26 -25 -26 -25 -25 -25 -25 -25 -25 -24 -24 -24 -24 -24 -24 -24 -24 -25 -25 -25 -24 -25 -25 -25 -25 -25 -25 -25
-30 -30 -30 -30 -30 -30 -29 -28 -28 -28 -27 -27 -26 -26 -26 -26 -26 -26 -25 -25 -25 -25 -25 -25 -25 -25 -24 -24 -24 -25 -24 -25 -25 -24 -25 -25 -25 -25 -25 -25 -25 -25 -25 -25
-30 -30 -30 -30 -30 -30 -30 -29 -29 -28 -28 -27 -27 -27 -26 -26 -26 -26 -26 -26 -26 -26 -25 -25 -25 -24 -24 -24 -24 -24 -24 -25 -24 -25 -25 -25 -25 -25 -25 -24 -24 -24 -24 -24
-31 -31 -32 -31 -31 -31 -31 -30 -29 -29 -28 -28 -27 -28 -26 -27 -27 -27 -26 -26 -26 -26 -26 -26 -25 -25 -24 -24 -24 -24 -25 -25 -25 -24 -25 -25 -25 -25 -24 -24 -24 -24 -24 -25
-31 -31 -32 -32 -31 -31 -30 -30 -30 -29 -29 -28 -28 -28 -28 -28 -27 -27 -27 -27 -27 -26 -26 -26 -25 -25 -25 -25 -24 -24 -26 -26 -25 -24 -25 -25 -25 -25 -25 -24 -24 -24 -24 -24
-33 -33 -32 -32 -31 -31 -30 -30 -30 -30 -30 -29 -28 -28 -28 -28 -28 -27 -27 -27 -27 -26 -26 -25 -25 -25 -26 -25 -24 -25 -26 -26 -25 -25 -25 -25 -25 -25 -25 -24 -24 -24 -24 -24
-33 -33 -32 -33 -32 -31 -31 -30 -30 -30 -30 -29 -29 -28 -28 -28 -28 -28 -27 -27 -26 -27 -26 -26 -26 -26 -26 -25 -24 -26 -26 -26 -25 -25 -25 -24 -25 -25 -25 -24 -24 -24 -24 -24
-34 -34 -33 -33 -32 -31 -30 -30 -30 -30 -31 -30 -29 -28 -28 -28 -28 -28 -27 -27 -27 -27 -27 -26 -26 -26 -26 -25 -25 -26 -26 -26 -25 -25 -25 -25 -25 -25 -25 -24 -24 -24 -25 -25
-34 -34 -34 -33 -32 -31 -31 -31 -31 -31 -31 -30 -29 -28 -29 -29 -28 -28 -28 -28 -28 -27 -27 -26 -26 -26 -25 -25 -26 -26 -26 -25 -25 -25 -25 -25 -25 -25 -25 -25 -25 -25 -25 -25
-34 -34 -34 -33 -31 -31 -32 -32 -32 -31 -31 -30 -29 -29 -29 -29 -29 -29 -28 -28 -27 -27 -27 -27 -26 -25 -26 -26 -27 -26 -25 -25 -25 -25 -25 -25 -24 -24 -25 -25 -25 -25 -25 -25
-34 -34 -33 -32 -32 -33 -33 -33 -32 -30 -30 -29 -29 -29 -29 -30 -29 -29 -29 -28 -28 -27 -27 -27 -25 -25 -26 -27 -26 -25 -25 -24 -25 -25 -25 -25 -24 -25 -25 -25 -25 -25 -25 -25
-34 -33 -33 -33 -33 -32 -32 -31 -29 -29 -29 -29 -29 -29 -29 -29 -29 -29 -29 -29 -28 -27 -27 -26 -26 -26 -26 -26 -25 -24 -24 -25 -25 -25 -25 -25 -24 -25 -25 -25 -25 -25 -25 -26
-33 -33 -33 -33 -32 -31 -29 -28 -28 -28 -29 -29 -29 -29 -29 -29 -29 -29 -28 -28 -28 -27 -27 -26 -26 -27 -25 -25 -25 -25 -25 -25 -25 -25 -25 -24 -24 -24 -25 -25 -25 -25 -26 -26
-32 -32 -32 -31 -29 -28 -27 -27 -28 -29 -29 -29 -29 -28 -29 -28 -28 -28 -28 -28 -28 -27 -26 -26 -26 -26 -25 -25 -25 -25 -25 -25 -25 -24 -24 -24 -25 -25 -25 -25 -26 -26 -27 -27
-30 -31 -29 -29 -28 -28 -28 -29 -29 -29 -28 -28 -28 -28 -28 -28 -28 -28 -27 -27 -26 -26 -27 -26 -26 -26 -26 -25 -25 -25 -24 -24 -24 -24 -25 -25 -25 -25 -26 -26 -26 -27 -27 -27
-29 -28 -27 -27 -28 -28 -28 -28 -29 -29 -28 -27 -28 -28 -28 -27 -27 -27 -27 -26 -26 -26 -26 -26 -26 -26 -26 -25 -25 -25 -24 -24 -25 -25 -25 -25 -25 -26 -26 -26 -27 -27 -28 -28
-28 -28 -28 -28 -28 -28 -28 -28 -28 -28 -28 -27 -27 -27 -27 -27 -27 -26 -26 -26 -26 -27 -26 -26 -26 -26 -26 -25 -25 -25 -25 -25 -25 -25 -25 -26 -26 -26 -26 -27 -27 -28 -28 -29